BG4WDV-11 Weather Reports


Display with metric or nautical units.
time (UTC)temp
F
wind
direction
speed
MPH
gust
MPH
rain 1hr
in
rain 24hr
in
rain mn
in
humidity
%
barometer
mb
20260509064605 79 180 3.0 6.0 0.00 0.00 0.00 29 1013.2
20260509064505 79 45 3.0 6.0 0.00 0.00 0.00 29 1013.2
20260509064406 79 0 3.0 6.0 0.00 0.00 0.00 28 1013.4
20260509064306 80 0 3.0 6.0 0.00 0.00 0.00 28 1013.2
20260509064205 80 225 3.0 6.0 0.00 0.00 0.00 28 1013.3
20260509064105 80 0 3.0 9.0 0.00 0.00 0.00 28 1013.5
20260509064005 80 225 3.0 9.0 0.00 0.00 0.00 28 1013.5
20260509063905 80 0 3.0 9.0 0.00 0.00 0.00 28 1013.5
20260509063805 80 2 9.0 0.0 0.00 0.00 0.00 28 1013.4
20260509063705 80 0 1.0 9.0 0.00 0.00 0.00 28 1013.3
20260509063605 79 0 1.0 9.0 0.00 0.00 0.00 28 1013.4
20260509063505 79 45 3.0 9.0 0.00 0.00 0.00 28 1013.4
20260509063405 79 3 9.0 0.0 0.00 0.00 0.00 28 1013.4
20260509063305 79 45 3.0 9.0 0.00 0.00 0.00 28 1013.5
20260509063205 79 0 3.0 9.0 0.00 0.00 0.00 28 1013.4
20260509063105 79 0 3.0 9.0 0.00 0.00 0.00 29 1013.6
20260509063005 79 225 3.0 9.0 0.00 0.00 0.00 28 1013.4
20260509062905 79 180 4.0 9.0 0.00 0.00 0.00 28 1013.6
20260509062805 79 45 5.0 9.0 0.00 0.00 0.00 28 1013.4
20260509062705 79 45 5.0 9.0 0.00 0.00 0.00 28 1013.5
20260509062605 80 90 4.0 9.0 0.00 0.00 0.00 28 1013.6
20260509062505 80 45 5.0 9.0 0.00 0.00 0.00 27 1013.4
20260509062405 80 45 4.0 9.0 0.00 0.00 0.00 27 1013.5
20260509062306 80 45 3.0 7.0 0.00 0.00 0.00 27 1013.5
20260509062205 80 90 3.0 7.0 0.00 0.00 0.00 27 1013.7
20260509062105 80 180 3.0 8.0 0.00 0.00 0.00 27 1013.5
20260509062005 80 90 3.0 8.0 0.00 0.00 0.00 27 1013.5
20260509061906 80 180 3.0 9.0 0.00 0.00 0.00 28 1013.5
20260509061805 80 180 3.0 9.0 0.00 0.00 0.00 27 1013.6
20260509061705 80 180 3.0 9.0 0.00 0.00 0.00 27 1013.6
20260509061605 80 180 3.0 9.0 0.00 0.00 0.00 28 1013.6
20260509061505 80 180 3.0 9.0 0.00 0.00 0.00 28 1013.7
20260509061405 79 180 3.0 9.0 0.00 0.00 0.00 27 1013.8
20260509061305 79 180 4.0 10.0 0.00 0.00 0.00 27 1013.7
20260509061205 79 180 4.0 10.0 0.00 0.00 0.00 27 1013.6
20260509061105 79 180 5.0 10.0 0.00 0.00 0.00 26 1013.7
20260509061005 80 180 4.0 10.0 0.00 0.00 0.00 26 1013.7
20260509060905 80 90 3.0 10.0 0.00 0.00 0.00 26 1013.5
20260509060805 79 180 4.0 10.0 0.00 0.00 0.00 26 1013.5
20260509060705 79 180 4.0 10.0 0.00 0.00 0.00 26 1013.8
20260509060605 80 180 3.0 10.0 0.00 0.00 0.00 25 1013.7
20260509060505 80 180 5.0 10.0 0.00 0.00 0.00 25 1013.8
20260509060405 80 0 4.0 10.0 0.00 0.00 0.00 25 1013.8
20260509060305 80 180 4.0 10.0 0.00 0.00 0.00 26 1013.7
20260509060205 80 180 4.0 10.0 0.00 0.00 0.00 26 1013.8
20260509060105 80 90 4.0 10.0 0.00 0.00 0.00 26 1013.9
20260509060005 80 180 6.0 10.0 0.00 0.00 0.00 25 1013.8
20260509055905 80 90 6.0 10.0 0.00 0.00 0.00 25 1013.7
20260509055805 80 180 4.0 8.0 0.00 0.00 0.00 25 1013.7
20260509055705 80 180 4.0 8.0 0.00 0.00 0.00 24 1013.8
20260509055605 80 180 4.0 9.0 0.00 0.00 0.00 25 1013.7
20260509055505 80 180 4.0 9.0 0.00 0.00 0.00 24 1013.8
20260509055405 80 180 3.0 9.0 0.00 0.00 0.00 24 1013.9
20260509055306 81 90 4.0 9.0 0.00 0.00 0.00 24 1014.0
20260509055205 80 90 3.0 9.0 0.00 0.00 0.00 25 1014.0
20260509055105 80 180 3.0 9.0 0.00 0.00 0.00 25 1013.8
20260509055005 80 180 3.0 9.0 0.00 0.00 0.00 25 1014.0
20260509054905 80 225 3.0 9.0 0.00 0.00 0.00 25 1013.9
20260509054805 80 0 4.0 9.0 0.00 0.00 0.00 25 1014.0
20260509054705 80 180 4.0 9.0 0.00 0.00 0.00 25 1014.2
20260509054605 80 180 4.0 9.0 0.00 0.00 0.00 26 1014.1
20260509054505 80 0 3.0 9.0 0.00 0.00 0.00 27 1013.9
20260509054405 80 180 3.0 9.0 0.00 0.00 0.00 27 1014.1
20260509054305 80 180 3.0 9.0 0.00 0.00 0.00 26 1014.0
20260509054205 80 0 4.0 9.0 0.00 0.00 0.00 26 1014.0
20260509054105 80 180 5.0 9.0 0.00 0.00 0.00 26 1014.1
20260509054005 81 180 4.0 9.0 0.00 0.00 0.00 26 1014.0
20260509053905 81 180 3.0 9.0 0.00 0.00 0.00 26 1014.0
20260509053805 81 180 3.0 9.0 0.00 0.00 0.00 26 1014.2
20260509053705 81 180 3.0 9.0 0.00 0.00 0.00 27 1014.1
20260509053605 80 180 3.0 9.0 0.00 0.00 0.00 27 1014.2
20260509053505 81 180 4.0 9.0 0.00 0.00 0.00 27 1014.3
20260509053405 81 180 5.0 9.0 0.00 0.00 0.00 27 1014.3
20260509053305 81 180 5.0 9.0 0.00 0.00 0.00 27 1014.3
20260509053205 81 180 4.0 8.0 0.00 0.00 0.00 27 1014.3
20260509053105 81 0 3.0 8.0 0.00 0.00 0.00 26 1014.2
20260509053005 81 180 2.0 8.0 0.00 0.00 0.00 27 1014.3
20260509052905 80 0 2.0 8.0 0.00 0.00 0.00 27 1014.3
20260509052805 80 225 3.0 10.0 0.00 0.00 0.00 26 1014.2
20260509052705 80 180 3.0 10.0 0.00 0.00 0.00 26 1014.4
20260509052605 80 180 4.0 10.0 0.00 0.00 0.00 26 1014.3
20260509052505 80 0 4.0 10.0 0.00 0.00 0.00 26 1014.4
20260509052405 81 180 4.0 10.0 0.00 0.00 0.00 26 1014.3
20260509052307 81 180 3.0 10.0 0.00 0.00 0.00 26 1014.3
20260509052205 80 0 3.0 10.0 0.00 0.00 0.00 26 1014.5
20260509052105 81 90 3.0 10.0 0.00 0.00 0.00 25 1014.5
20260509052005 81 180 4.0 10.0 0.00 0.00 0.00 25 1014.5
20260509051905 81 180 6.0 10.0 0.00 0.00 0.00 24 1014.5
20260509051805 82 0 5.0 9.0 0.00 0.00 0.00 25 1014.6
20260509051705 82 180 4.0 8.0 0.00 0.00 0.00 26 1014.6
20260509051605 82 180 3.0 8.0 0.00 0.00 0.00 26 1014.5
20260509051505 82 225 1.0 8.0 0.00 0.00 0.00 27 1014.5
20260509051305 81 0 2.0 8.0 0.00 0.00 0.00 26 1014.5
20260509051205 81 180 2.0 9.0 0.00 0.00 0.00 26 1014.5
20260509051105 81 0 3.0 9.0 0.00 0.00 0.00 26 1014.4
20260509051005 81 90 4.0 9.0 0.00 0.00 0.00 25 1014.6
20260509050905 81 180 3.0 9.0 0.00 0.00 0.00 26 1014.6
20260509050805 81 180 3.0 9.0 0.00 0.00 0.00 25 1014.7
20260509050705 81 180 4.0 9.0 0.00 0.00 0.00 25 1014.6
20260509050605 81 90 3.0 9.0 0.00 0.00 0.00 26 1014.8
20260509050505 81 180 3.0 9.0 0.00 0.00 0.00 26 1014.7
20260509050405 81 180 3.0 9.0 0.00 0.00 0.00 26 1014.8
20260509050305 81 180 3.0 9.0 0.00 0.00 0.00 26 1014.6
20260509050205 80 180 4.0 9.0 0.00 0.00 0.00 26 1014.7
20260509050105 80 180 4.0 9.0 0.00 0.00 0.00 26 1014.8
20260509050005 80 0 3.0 9.0 0.00 0.00 0.00 26 1014.8
20260509045905 80 180 3.0 9.0 0.00 0.00 0.00 26 1014.8
20260509045805 80 180 3.0 9.0 0.00 0.00 0.00 25 1014.7
20260509045705 80 0 3.0 9.0 0.00 0.00 0.00 25 1014.8
20260509045605 81 180 3.0 9.0 0.00 0.00 0.00 25 1014.7
20260509045505 80 225 4.0 9.0 0.00 0.00 0.00 25 1014.8
20260509045405 80 180 4.0 9.0 0.00 0.00 0.00 25 1014.8
20260509045306 80 180 3.0 9.0 0.00 0.00 0.00 26 1015.1
20260509045205 80 180 3.0 9.0 0.00 0.00 0.00 26 1014.9
20260509045105 79 180 4.0 9.0 0.00 0.00 0.00 26 1014.9
20260509045005 80 180 3.0 9.0 0.00 0.00 0.00 26 1014.9
20260509044905 80 0 3.0 9.0 0.00 0.00 0.00 26 1014.9
20260509044805 79 225 3.0 9.0 0.00 0.00 0.00 26 1014.9
20260509044705 79 180 4.0 9.0 0.00 0.00 0.00 26 1014.9
20260509044605 79 90 5.0 9.0 0.00 0.00 0.00 26 1014.9
20260509044505 79 180 6.0 9.0 0.00 0.00 0.00 26 1014.8
20260509044405 79 180 5.0 8.0 0.00 0.00 0.00 26 1014.9
20260509044305 79 180 5.0 8.0 0.00 0.00 0.00 27 1015.0
20260509044205 79 180 4.0 7.0 0.00 0.00 0.00 27 1015.0
20260509044105 79 180 3.0 7.0 0.00 0.00 0.00 28 1014.9
20260509044005 79 0 3.0 7.0 0.00 0.00 0.00 28 1014.9
20260509043905 79 225 2.0 8.0 0.00 0.00 0.00 28 1014.9
20260509043805 78 0 2.0 8.0 0.00 0.00 0.00 28 1015.1
20260509043705 78 180 3.0 8.0 0.00 0.00 0.00 28 1015.1
20260509043605 78 225 4.0 8.0 0.00 0.00 0.00 28 1015.2
20260509043505 78 180 4.0 8.0 0.00 0.00 0.00 29 1015.2
20260509043405 77 180 3.0 9.0 0.00 0.00 0.00 28 1015.0
20260509043304 77 180 4.0 9.0 0.00 0.00 0.00 28 1015.2
20260509043205 78 225 5.0 9.0 0.00 0.00 0.00 28 1015.2
20260509043105 78 225 4.0 9.0 0.00 0.00 0.00 28 1015.2
20260509043005 78 0 3.0 9.0 0.00 0.00 0.00 28 1015.2
20260509042905 78 0 3.0 9.0 0.00 0.00 0.00 28 1015.2
20260509042805 78 90 3.0 9.0 0.00 0.00 0.00 28 1015.1
20260509042705 78 180 3.0 9.0 0.00 0.00 0.00 28 1015.1
20260509042605 78 0 4.0 9.0 0.00 0.00 0.00 28 1015.4
20260509042505 78 180 5.0 9.0 0.00 0.00 0.00 27 1015.3
20260509042405 78 180 5.0 9.0 0.00 0.00 0.00 27 1015.3
20260509042307 78 180 5.0 9.0 0.00 0.00 0.00 27 1015.2
20260509042205 78 180 4.0 9.0 0.00 0.00 0.00 27 1015.4
20260509042105 78 180 4.0 9.0 0.00 0.00 0.00 27 1015.3
20260509042005 78 225 4.0 9.0 0.00 0.00 0.00 27 1015.2
20260509041905 78 180 3.0 8.0 0.00 0.00 0.00 27 1015.2
20260509041804 78 180 3.0 8.0 0.00 0.00 0.00 27 1015.3
20260509041705 79 180 3.0 8.0 0.00 0.00 0.00 27 1015.4
20260509041605 79 180 3.0 9.0 0.00 0.00 0.00 27 1015.3
20260509041505 79 0 3.0 9.0 0.00 0.00 0.00 27 1015.5
20260509041405 79 180 3.0 9.0 0.00 0.00 0.00 27 1015.4
20260509041305 79 180 3.0 9.0 0.00 0.00 0.00 27 1015.3
20260509041205 79 180 3.0 9.0 0.00 0.00 0.00 27 1015.3
20260509041105 79 0 3.0 9.0 0.00 0.00 0.00 27 1015.5
20260509041005 79 0 5.0 9.0 0.00 0.00 0.00 27 1015.4
20260509040905 79 180 5.0 9.0 0.00 0.00 0.00 27 1015.6
20260509040805 79 180 4.0 9.0 0.00 0.00 0.00 27 1015.4
20260509040705 79 90 4.0 9.0 0.00 0.00 0.00 27 1015.4
20260509040604 78 90 4.0 11.0 0.00 0.00 0.00 27 1015.4
20260509040505 78 180 5.0 11.0 0.00 0.00 0.00 26 1015.4
20260509040405 79 90 5.0 11.0 0.00 0.00 0.00 27 1015.5
20260509040305 79 180 4.0 11.0 0.00 0.00 0.00 27 1015.6
20260509040204 79 180 4.0 11.0 0.00 0.00 0.00 27 1015.6
20260509040105 79 180 4.0 11.0 0.00 0.00 0.00 27 1015.6
20260509040005 79 0 5.0 11.0 0.00 0.00 0.00 26 1015.7
20260509035905 79 180 5.0 11.0 0.00 0.00 0.00 26 1015.6
20260509035804 80 180 5.0 11.0 0.00 0.00 0.00 26 1015.8
20260509035705 80 180 4.0 11.0 0.00 0.00 0.00 26 1015.6
20260509035605 80 0 3.0 7.0 0.00 0.00 0.00 26 1015.4
20260509035505 80 0 3.0 7.0 0.00 0.00 0.00 26 1015.7
20260509035404 80 180 3.0 8.0 0.00 0.00 0.00 26 1015.9
20260509035306 80 180 3.0 8.0 0.00 0.00 0.00 26 1015.8
20260509035205 80 0 3.0 9.0 0.00 0.00 0.00 26 1015.8
20260509035105 79 180 3.0 9.0 0.00 0.00 0.00 26 1015.8
20260509035004 80 0 3.0 9.0 0.00 0.00 0.00 26 1015.8
20260509034904 79 180 3.0 9.0 0.00 0.00 0.00 26 1015.8
20260509034805 79 225 3.0 9.0 0.00 0.00 0.00 26 1016.0
20260509034705 79 180 3.0 9.0 0.00 0.00 0.00 26 1015.9
20260509034504 79 180 4.0 9.0 0.00 0.00 0.00 25 1016.1
20260509034405 79 180 4.0 9.0 0.00 0.00 0.00 25 1016.0
20260509034305 79 90 4.0 9.0 0.00 0.00 0.00 26 1016.0
20260509034204 79 0 4.0 9.0 0.00 0.00 0.00 26 1016.1
20260509034104 79 180 4.0 9.0 0.00 0.00 0.00 25 1016.0
20260509034005 79 180 3.0 9.0 0.00 0.00 0.00 26 1016.1
20260509033905 79 180 3.0 9.0 0.00 0.00 0.00 25 1016.1
20260509033804 79 180 3.0 9.0 0.00 0.00 0.00 26 1016.0
20260509033704 79 180 3.0 9.0 0.00 0.00 0.00 26 1016.1
20260509033605 79 180 4.0 9.0 0.00 0.00 0.00 26 1016.2
20260509033505 79 180 3.0 9.0 0.00 0.00 0.00 26 1016.0
20260509033404 79 180 2.0 9.0 0.00 0.00 0.00 26 1016.1
20260509033204 79 180 4.0 9.0 0.00 0.00 0.00 26 1016.3
20260509033105 78 180 3.0 9.0 0.00 0.00 0.00 26 1016.1
20260509033004 78 5 9.0 0.0 0.00 0.00 0.00 26 1016.1
20260509032904 79 180 4.0 9.0 0.00 0.00 0.00 25 1016.3
20260509032804 79 180 3.0 9.0 0.00 0.00 0.00 26 1016.4
20260509032705 79 0 3.0 9.0 0.00 0.00 0.00 26 1016.3
20260509032605 79 180 3.0 9.0 0.00 0.00 0.00 26 1016.3
20260509032504 79 180 3.0 9.0 0.00 0.00 0.00 26 1016.4
20260509032404 79 180 3.0 9.0 0.00 0.00 0.00 27 1016.3
20260509032306 79 90 3.0 9.0 0.00 0.00 0.00 27 1016.3
20260509032205 78 180 4.0 9.0 0.00 0.00 0.00 27 1016.2
20260509032104 78 90 4.0 9.0 0.00 0.00 0.00 27 1016.3
20260509031904 78 180 4.0 9.0 0.00 0.00 0.00 27 1016.4
20260509031805 78 0 5.0 9.0 0.00 0.00 0.00 27 1016.4
20260509031704 78 0 5.0 9.0 0.00 0.00 0.00 26 1016.5
20260509031604 78 0 4.0 9.0 0.00 0.00 0.00 26 1016.4
20260509031504 79 0 3.0 8.0 0.00 0.00 0.00 26 1016.4
20260509031405 79 180 3.0 10.0 0.00 0.00 0.00 26 1016.5
20260509031304 79 180 5.0 10.0 0.00 0.00 0.00 26 1016.4
20260509031204 80 180 5.0 10.0 0.00 0.00 0.00 26 1016.3
20260509031104 80 0 4.0 10.0 0.00 0.00 0.00 26 1016.5
20260509031004 80 0 3.0 10.0 0.00 0.00 0.00 27 1016.4
20260509030904 79 0 3.0 10.0 0.00 0.00 0.00 28 1016.4
20260509030804 79 180 3.0 10.0 0.00 0.00 0.00 28 1016.5
20260509030704 79 180 2.0 10.0 0.00 0.00 0.00 27 1016.4
20260509030604 79 180 3.0 10.0 0.00 0.00 0.00 27 1016.4
20260509030504 79 0 3.0 10.0 0.00 0.00 0.00 27 1016.5
20260509030404 79 180 2.0 8.0 0.00 0.00 0.00 28 1016.6
20260509030304 78 0 2.0 9.0 0.00 0.00 0.00 28 1016.4
20260509030204 78 225 3.0 9.0 0.00 0.00 0.00 28 1016.6
20260509030105 78 0 2.0 9.0 0.00 0.00 0.00 28 1016.5
20260509030004 78 0 2.0 9.0 0.00 0.00 0.00 29 1016.6
20260509025904 77 225 3.0 9.0 0.00 0.00 0.00 29 1016.5
20260509025804 77 180 4.0 9.0 0.00 0.00 0.00 28 1016.7
20260509025704 77 0 4.0 9.0 0.00 0.00 0.00 28 1016.5
20260509025604 77 180 3.0 9.0 0.00 0.00 0.00 29 1016.6
20260509025504 78 0 4.0 11.0 0.00 0.00 0.00 28 1016.5
20260509025404 78 0 3.0 11.0 0.00 0.00 0.00 28 1016.7
20260509025306 78 0 3.0 11.0 0.00 0.00 0.00 28 1016.7
20260509025204 78 180 5.0 11.0 0.00 0.00 0.00 28 1016.6
20260509025104 78 180 4.0 11.0 0.00 0.00 0.00 29 1016.7
20260509025004 78 180 3.0 11.0 0.00 0.00 0.00 29 1016.8
20260509024904 78 180 3.0 11.0 0.00 0.00 0.00 29 1016.7
20260509024804 77 90 3.0 11.0 0.00 0.00 0.00 29 1016.7
20260509024704 77 90 3.0 11.0 0.00 0.00 0.00 29 1016.8
20260509024604 78 0 4.0 11.0 0.00 0.00 0.00 29 1016.6
20260509024404 78 180 3.0 9.0 0.00 0.00 0.00 30 1016.8
20260509024304 78 180 3.0 9.0 0.00 0.00 0.00 30 1016.8
20260509024204 78 180 3.0 9.0 0.00 0.00 0.00 31 1016.8
20260509024104 78 180 3.0 9.0 0.00 0.00 0.00 31 1016.8
20260509024004 78 180 3.0 9.0 0.00 0.00 0.00 30 1016.7
20260509023904 78 0 3.0 9.0 0.00 0.00 0.00 30 1016.9
20260509023804 78 225 3.0 9.0 0.00 0.00 0.00 31 1016.9
20260509023704 78 180 4.0 9.0 0.00 0.00 0.00 31 1016.8
20260509023604 79 180 4.0 9.0 0.00 0.00 0.00 30 1017.1
20260509023504 78 180 2.0 9.0 0.00 0.00 0.00 32 1016.7
20260509023404 78 180 0.0 8.0 0.00 0.00 0.00 32 1016.8
20260509023304 77 180 0.0 8.0 0.00 0.00 0.00 33 1016.7
20260509023204 77 180 2.0 8.0 0.00 0.00 0.00 32 1016.9
20260509023104 78 225 3.0 8.0 0.00 0.00 0.00 31 1016.8
20260509023004 78 0 3.0 8.0 0.00 0.00 0.00 32 1017.0
20260509022904 78 180 3.0 8.0 0.00 0.00 0.00 31 1017.0
20260509022804 78 180 3.0 7.0 0.00 0.00 0.00 31 1017.0
20260509022704 78 0 1.0 6.0 0.00 0.00 0.00 31 1017.0
20260509022604 77 225 3.0 6.0 0.00 0.00 0.00 31 1017.0
20260509022504 77 180 3.0 6.0 0.00 0.00 0.00 31 1017.0
20260509022404 77 180 3.0 7.0 0.00 0.00 0.00 31 1017.0
20260509022306 77 0 2.0 7.0 0.00 0.00 0.00 31 1017.1
20260509022204 77 0 2.0 8.0 0.00 0.00 0.00 31 1017.1
20260509022104 77 180 2.0 8.0 0.00 0.00 0.00 32 1017.0
20260509022004 77 0 1.0 8.0 0.00 0.00 0.00 32 1016.9
20260509021904 76 0 2.0 8.0 0.00 0.00 0.00 32 1017.1
20260509021804 76 0 3.0 8.0 0.00 0.00 0.00 32 1017.0
20260509021704 76 180 3.0 8.0 0.00 0.00 0.00 32 1017.2
20260509021604 76 180 3.0 8.0 0.00 0.00 0.00 32 1017.1
20260509021504 76 180 4.0 8.0 0.00 0.00 0.00 32 1017.0
20260509021405 76 180 4.0 8.0 0.00 0.00 0.00 32 1017.3
20260509021304 76 0 3.0 8.0 0.00 0.00 0.00 32 1017.2
20260509021204 77 90 3.0 7.0 0.00 0.00 0.00 33 1017.2
20260509021104 77 90 3.0 7.0 0.00 0.00 0.00 33 1017.2
20260509021004 77 180 3.0 7.0 0.00 0.00 0.00 34 1017.3
20260509020905 76 0 3.0 7.0 0.00 0.00 0.00 34 1017.3
20260509020804 76 180 2.0 7.0 0.00 0.00 0.00 34 1017.3
20260509020704 76 180 2.0 7.0 0.00 0.00 0.00 34 1017.1
20260509020604 76 180 3.0 7.0 0.00 0.00 0.00 33 1017.4
20260509020505 76 180 3.0 7.0 0.00 0.00 0.00 34 1017.3
20260509020404 76 180 4.0 9.0 0.00 0.00 0.00 33 1017.3
20260509020304 76 0 4.0 9.0 0.00 0.00 0.00 33 1017.3
20260509020204 76 180 3.0 9.0 0.00 0.00 0.00 33 1017.3
20260509020105 76 180 3.0 9.0 0.00 0.00 0.00 33 1017.3
20260509020005 77 0 3.0 9.0 0.00 0.00 0.00 33 1017.4
20260509015904 76 180 2.0 9.0 0.00 0.00 0.00 33 1017.3
20260509015804 0 174 5.0 0.0 0.00 0.00 0.00
20260509015704 76 180 3.0 9.0 0.00 0.00 0.00 33 1017.2
20260509015604 76 180 4.0 9.0 0.00 0.00 0.00 32 1017.3
20260509015504 76 180 4.0 9.0 0.00 0.00 0.00 33 1017.3
20260509015404 76 180 3.0 7.0 0.00 0.00 0.00 33 1017.3
20260509015306 76 180 3.0 7.0 0.00 0.00 0.00 33 1017.4
20260509015204 76 180 3.0 8.0 0.00 0.00 0.00 34 1017.3
20260509015104 76 180 3.0 8.0 0.00 0.00 0.00 33 1017.3
20260509015004 76 0 3.0 8.0 0.00 0.00 0.00 33 1017.3
20260509014904 76 180 3.0 8.0 0.00 0.00 0.00 33 1017.3
20260509014804 76 180 3.0 8.0 0.00 0.00 0.00 33 1017.3
20260509014704 76 180 3.0 8.0 0.00 0.00 0.00 33 1017.3
20260509014604 76 180 3.0 8.0 0.00 0.00 0.00 33 1017.4
20260509014504 76 180 4.0 8.0 0.00 0.00 0.00 32 1017.4
20260509014404 76 180 5.0 8.0 0.00 0.00 0.00 32 1017.3
20260509014304 76 180 3.0 8.0 0.00 0.00 0.00 32 1017.4
20260509014204 76 180 2.0 8.0 0.00 0.00 0.00 33 1017.3
20260509014104 76 0 3.0 8.0 0.00 0.00 0.00 33 1017.3
20260509014004 76 180 2.0 8.0 0.00 0.00 0.00 33 1017.3
20260509013904 75 180 2.0 8.0 0.00 0.00 0.00 33 1017.4
20260509013804 75 180 3.0 8.0 0.00 0.00 0.00 33 1017.4
20260509013704 75 180 3.0 8.0 0.00 0.00 0.00 33 1017.2
20260509013604 76 180 4.0 8.0 0.00 0.00 0.00 32 1017.3
20260509013504 76 0 4.0 8.0 0.00 0.00 0.00 32 1017.3
20260509013404 76 180 4.0 8.0 0.00 0.00 0.00 32 1017.4
20260509013304 76 180 3.0 8.0 0.00 0.00 0.00 33 1017.3
20260509013204 76 225 1.0 7.0 0.00 0.00 0.00 34 1017.3
20260509013104 75 90 2.0 7.0 0.00 0.00 0.00 34 1017.3
20260509013004 75 180 2.0 7.0 0.00 0.00 0.00 34 1017.2
20260509012904 75 180 3.0 8.0 0.00 0.00 0.00 33 1017.3
20260509012804 75 180 3.0 8.0 0.00 0.00 0.00 33 1017.3
20260509012704 75 180 3.0 8.0 0.00 0.00 0.00 33 1017.4
20260509012604 75 180 3.0 8.0 0.00 0.00 0.00 33 1017.4
20260509012504 75 180 3.0 8.0 0.00 0.00 0.00 33 1017.4
20260509012404 75 180 1.0 9.0 0.00 0.00 0.00 33 1017.5
20260509012307 74 45 1.0 11.0 0.00 0.00 0.00 34 1017.5
20260509012204 74 180 3.0 11.0 0.00 0.00 0.00 34 1017.3
20260509012104 74 180 3.0 11.0 0.00 0.00 0.00 33 1017.4
20260509012004 74 180 3.0 11.0 0.00 0.00 0.00 33 1017.4
20260509011904 74 0 3.0 11.0 0.00 0.00 0.00 33 1017.3
20260509011804 74 180 3.0 11.0 0.00 0.00 0.00 33 1017.4
20260509011704 74 90 3.0 11.0 0.00 0.00 0.00 33 1017.4
20260509011604 74 180 3.0 11.0 0.00 0.00 0.00 33 1017.5
20260509011504 74 90 5.0 11.0 0.00 0.00 0.00 33 1017.3
20260509011404 74 180 4.0 11.0 0.00 0.00 0.00 33 1017.5
20260509011304 74 180 4.0 8.0 0.00 0.00 0.00 33 1017.5
20260509011204 74 180 3.0 7.0 0.00 0.00 0.00 34 1017.3
20260509011104 74 180 3.0 6.0 0.00 0.00 0.00 34 1017.4
20260509011003 0 172 5.0 0.0 0.00 0.00 0.00
20260509010904 74 0 3.0 6.0 0.00 0.00 0.00 34 1017.4
20260509010804 74 180 3.0 6.0 0.00 0.00 0.00 34 1017.5
20260509010704 74 180 3.0 6.0 0.00 0.00 0.00 35 1017.3
20260509010604 74 0 3.0 6.0 0.00 0.00 0.00 35 1017.3
20260509010504 74 90 2.0 6.0 0.00 0.00 0.00 36 1017.2
20260509010404 74 225 2.0 6.0 0.00 0.00 0.00 36 1017.4
20260509010304 74 0 2.0 7.0 0.00 0.00 0.00 37 1017.4
20260509010204 74 0 2.0 7.0 0.00 0.00 0.00 36 1017.5
20260509010104 74 180 2.0 7.0 0.00 0.00 0.00 36 1017.3
20260509010004 73 0 2.0 7.0 0.00 0.00 0.00 37 1017.3
20260509005904 73 180 2.0 7.0 0.00 0.00 0.00 37 1017.4
20260509005804 73 180 2.0 7.0 0.00 0.00 0.00 38 1017.4
20260509005704 73 180 3.0 7.0 0.00 0.00 0.00 38 1017.4
20260509005603 0 173 7.0 0.0 0.00 0.00 0.00
20260509005504 73 180 3.0 7.0 0.00 0.00 0.00 38 1017.3
20260509005404 73 180 3.0 7.0 0.00 0.00 0.00 39 1017.2
20260509005306 73 180 3.0 6.0 0.00 0.00 0.00 39 1017.2
20260509005204 72 180 2.0 6.0 0.00 0.00 0.00 39 1017.2
20260509005104 72 180 3.0 6.0 0.00 0.00 0.00 40 1017.2
20260509005004 72 180 3.0 6.0 0.00 0.00 0.00 39 1017.2
20260509004904 72 90 3.0 6.0 0.00 0.00 0.00 40 1017.2
20260509004804 72 90 3.0 6.0 0.00 0.00 0.00 41 1017.2
20260509004704 72 0 3.0 6.0 0.00 0.00 0.00 41 1017.2
20260509004604 72 0 3.0 6.0 0.00 0.00 0.00 42 1017.1
20260509004504 71 180 2.0 6.0 0.00 0.00 0.00 42 1017.2
20260509004404 72 180 2.0 6.0 0.00 0.00 0.00 41 1017.1
20260509004304 72 0 3.0 6.0 0.00 0.00 0.00 41 1017.2
20260509004103 72 0 3.0 5.0 0.00 0.00 0.00 41 1017.3
20260509004004 72 0 2.0 5.0 0.00 0.00 0.00 43 1017.2
20260509003904 72 0 2.0 5.0 0.00 0.00 0.00 42 1017.1
20260509003804 72 90 2.0 5.0 0.00 0.00 0.00 43 1017.2
20260509003703 72 180 2.0 5.0 0.00 0.00 0.00 43 1017.3
20260509003603 72 225 1.0 5.0 0.00 0.00 0.00 44 1017.1
20260509003504 72 180 1.0 5.0 0.00 0.00 0.00 45 1017.3
20260509003404 71 180 1.0 6.0 0.00 0.00 0.00 45 1017.2
20260509003304 71 90 1.0 6.0 0.00 0.00 0.00 45 1017.2
20260509003203 71 180 2.0 6.0 0.00 0.00 0.00 45 1017.1
20260509003104 71 0 3.0 6.0 0.00 0.00 0.00 44 1017.2
20260509003004 71 0 2.0 6.0 0.00 0.00 0.00 44 1017.1
20260509002904 71 225 1.0 6.0 0.00 0.00 0.00 45 1017.2
20260509002803 71 0 2.0 6.0 0.00 0.00 0.00 45 1017.2
20260509002704 71 180 2.0 6.0 0.00 0.00 0.00 45 1017.2
20260509002604 71 180 3.0 6.0 0.00 0.00 0.00 45 1017.1
20260509002504 70 0 3.0 6.0 0.00 0.00 0.00 46 1017.2
20260509002404 70 180 3.0 6.0 0.00 0.00 0.00 46 1017.2
20260509002306 70 180 1.0 5.0 0.00 0.00 0.00 46 1017.2
20260509002204 70 180 2.0 5.0 0.00 0.00 0.00 46 1017.1
20260509002104 70 90 1.0 5.0 0.00 0.00 0.00 47 1017.2
20260509002004 70 90 1.0 5.0 0.00 0.00 0.00 48 1017.3
20260509001903 70 180 2.0 5.0 0.00 0.00 0.00 48 1017.1
20260509001803 70 180 2.0 5.0 0.00 0.00 0.00 49 1017.2
20260509001704 70 180 2.0 5.0 0.00 0.00 0.00 49 1017.2
20260509001604 70 180 2.0 5.0 0.00 0.00 0.00 49 1017.2
20260509001503 70 180 2.0 5.0 0.00 0.00 0.00 49 1017.3
20260509001403 70 180 2.0 5.0 0.00 0.00 0.00 49 1017.3
20260509001304 70 180 2.0 5.0 0.00 0.00 0.00 49 1017.2
20260509001204 70 180 2.0 5.0 0.00 0.00 0.00 49 1017.0
20260509001103 69 0 2.0 6.0 0.00 0.00 0.00 49 1017.1
20260509001003 69 180 2.0 6.0 0.00 0.00 0.00 49 1017.1
20260509000904 69 0 2.0 6.0 0.00 0.00 0.00 49 1017.1
20260509000804 69 0 2.0 6.0 0.00 0.00 0.00 50 1017.1
20260509000704 69 180 3.0 6.0 0.00 0.00 0.00 50 1017.2
20260509000603 69 180 2.0 6.0 0.00 0.00 0.00 50 1017.0
20260509000503 69 180 2.0 6.0 0.00 0.00 0.00 50 1017.0
20260509000404 69 90 2.0 6.0 0.00 0.00 0.00 50 1017.0
20260509000303 69 3 6.0 0.0 0.00 0.00 0.00 50 1016.9
20260509000204 69 180 3.0 6.0 0.00 0.00 0.00 50 1017.0
20260509000103 69 0 3.0 6.0 0.00 0.00 0.00 50 1017.0
20260509000004 69 180 2.0 6.0 0.00 0.00 0.00 50 1016.9
20260508235903 69 0 1.0 6.0 0.00 0.00 0.00 51 1016.9
20260508235803 68 0 1.0 6.0 0.00 0.00 0.00 51 1016.9
20260508235703 68 180 2.0 6.0 0.00 0.00 0.00 51 1016.9
20260508235604 68 0 3.0 6.0 0.00 0.00 0.00 51 1017.1
20260508235504 68 0 3.0 6.0 0.00 0.00 0.00 51 1017.0
20260508235403 68 180 3.0 6.0 0.00 0.00 0.00 51 1017.0
20260508235306 68 180 3.0 6.0 0.00 0.00 0.00 51 1017.0
20260508235204 68 180 3.0 6.0 0.00 0.00 0.00 51 1017.1
20260508235104 68 0 2.0 6.0 0.00 0.00 0.00 51 1016.9
20260508235003 68 0 3.0 5.0 0.00 0.00 0.00 52 1017.0
20260508234903 68 180 2.0 5.0 0.00 0.00 0.00 52 1016.9
20260508234803 68 180 2.0 5.0 0.00 0.00 0.00 52 1017.0
20260508234704 68 180 2.0 5.0 0.00 0.00 0.00 52 1017.0
20260508234603 68 180 3.0 5.0 0.00 0.00 0.00 52 1017.0
20260508234503 68 0 2.0 5.0 0.00 0.00 0.00 52 1017.0
20260508234403 68 180 2.0 5.0 0.00 0.00 0.00 52 1016.9
20260508234304 68 0 2.0 5.0 0.00 0.00 0.00 53 1016.9
20260508234203 68 0 0.0 5.0 0.00 0.00 0.00 54 1016.9
20260508234103 67 180 0.0 5.0 0.00 0.00 0.00 54 1017.0
20260508234003 67 180 2.0 5.0 0.00 0.00 0.00 54 1016.8
20260508233904 67 180 3.0 5.0 0.00 0.00 0.00 54 1016.8
20260508233803 67 0 2.0 5.0 0.00 0.00 0.00 54 1016.9
20260508233703 67 180 2.0 5.0 0.00 0.00 0.00 55 1017.0
20260508233603 67 180 2.0 6.0 0.00 0.00 0.00 55 1016.9
20260508233503 67 0 2.0 6.0 0.00 0.00 0.00 55 1017.0
20260508233403 67 180 3.0 6.0 0.00 0.00 0.00 55 1017.1
20260508233303 67 180 3.0 6.0 0.00 0.00 0.00 55 1017.0
20260508233203 67 0 2.0 6.0 0.00 0.00 0.00 55 1017.1
20260508233103 67 180 3.0 6.0 0.00 0.00 0.00 55 1016.9
20260508233004 67 180 3.0 6.0 0.00 0.00 0.00 55 1016.9
20260508232903 67 0 2.0 6.0 0.00 0.00 0.00 55 1016.9
20260508232803 67 180 3.0 6.0 0.00 0.00 0.00 55 1016.9
20260508232703 67 180 3.0 6.0 0.00 0.00 0.00 55 1017.0
20260508232603 67 180 2.0 5.0 0.00 0.00 0.00 56 1016.9
20260508232504 67 180 2.0 5.0 0.00 0.00 0.00 56 1016.8
20260508232403 66 180 2.0 5.0 0.00 0.00 0.00 57 1016.9
20260508232306 67 180 2.0 5.0 0.00 0.00 0.00 57 1016.9
20260508232203 66 180 2.0 4.0 0.00 0.00 0.00 57 1016.9
20260508232103 66 180 1.0 4.0 0.00 0.00 0.00 58 1016.8
20260508232003 66 180 0.0 4.0 0.00 0.00 0.00 58 1016.8
20260508231903 66 180 1.0 4.0 0.00 0.00 0.00 58 1016.8
20260508231803 66 180 2.0 4.0 0.00 0.00 0.00 57 1016.8
20260508231703 66 180 3.0 4.0 0.00 0.00 0.00 57 1016.8
20260508231603 66 180 3.0 4.0 0.00 0.00 0.00 57 1016.8
20260508231503 66 180 2.0 4.0 0.00 0.00 0.00 58 1016.9
20260508231403 66 180 1.0 3.0 0.00 0.00 0.00 58 1016.7
20260508231303 66 180 0.0 3.0 0.00 0.00 0.00 58 1016.8
20260508231203 66 180 1.0 3.0 0.00 0.00 0.00 58 1016.8
20260508231103 66 0 1.0 3.0 0.00 0.00 0.00 58 1016.7
20260508231003 66 180 0.0 3.0 0.00 0.00 0.00 58 1016.8
20260508230903 66 0 0.0 3.0 0.00 0.00 0.00 59 1016.7
20260508230804 66 180 0.0 3.0 0.00 0.00 0.00 59 1016.7
20260508230704 66 0 0.0 3.0 0.00 0.00 0.00 59 1016.7
20260508230603 66 180 1.0 3.0 0.00 0.00 0.00 59 1016.6
20260508230503 66 0 1.0 3.0 0.00 0.00 0.00 59 1016.7
20260508230403 66 180 0.0 3.0 0.00 0.00 0.00 60 1016.8
20260508230304 65 0 0.0 3.0 0.00 0.00 0.00 59 1016.6
20260508230204 65 180 1.0 3.0 0.00 0.00 0.00 59 1016.6
20260508230103 65 0 1.0 3.0 0.00 0.00 0.00 59 1016.7
20260508230004 66 0 1.0 3.0 0.00 0.00 0.00 58 1016.5
20260508225904 66 0 1.0 3.0 0.00 0.00 0.00 58 1016.5
20260508225804 66 0 1.0 3.0 0.00 0.00 0.00 58 1016.7
20260508225703 66 225 1.0 3.0 0.00 0.00 0.00 58 1016.7
20260508225603 66 180 1.0 3.0 0.00 0.00 0.00 58 1016.6
20260508225504 66 180 1.0 3.0 0.00 0.00 0.00 58 1016.8
20260508225404 66 180 1.0 3.0 0.00 0.00 0.00 58 1016.6
20260508225306 66 180 0.0 3.0 0.00 0.00 0.00 58 1016.8
20260508225203 66 0 0.0 2.0 0.00 0.00 0.00 58 1016.6
20260508225103 66 225 0.0 2.0 0.00 0.00 0.00 58 1016.7
20260508225004 66 180 0.0 2.0 0.00 0.00 0.00 58 1016.6
20260508224903 66 0 0.0 2.0 0.00 0.00 0.00 58 1016.7
20260508224803 66 180 0.0 3.0 0.00 0.00 0.00 58 1016.6
20260508224703 66 180 0.0 3.0 0.00 0.00 0.00 58 1016.7
20260508224603 66 90 0.0 3.0 0.00 0.00 0.00 58 1016.7
20260508224504 66 180 0.0 3.0 0.00 0.00 0.00 58 1016.6
20260508224403 66 180 0.0 3.0 0.00 0.00 0.00 59 1016.7
20260508224303 65 180 0.0 3.0 0.00 0.00 0.00 59 1016.5
20260508224203 65 180 0.0 3.0 0.00 0.00 0.00 59 1016.5
20260508224103 65 180 0.0 3.0 0.00 0.00 0.00 59 1016.6
20260508224003 65 180 0.0 3.0 0.00 0.00 0.00 58 1016.6
20260508223903 65 0 0.0 3.0 0.00 0.00 0.00 58 1016.5
20260508223803 65 0 0.0 2.0 0.00 0.00 0.00 58 1016.6
20260508223703 65 0 0.0 2.0 0.00 0.00 0.00 59 1016.6
20260508223603 65 180 1.0 2.0 0.00 0.00 0.00 58 1016.5
20260508223503 65 180 0.0 2.0 0.00 0.00 0.00 59 1016.6
20260508223403 65 180 0.0 1.0 0.00 0.00 0.00 59 1016.6
20260508223303 65 180 0.0 0.0 0.00 0.00 0.00 59 1016.5
20260508223203 65 0 0.0 0.0 0.00 0.00 0.00 59 1016.5
20260508223003 65 0 0.0 0.0 0.00 0.00 0.00 59 1016.5
20260508222903 65 180 0.0 0.0 0.00 0.00 0.00 59 1016.4
20260508222803 65 180 0.0 0.0 0.00 0.00 0.00 60 1016.5
20260508222703 65 180 0.0 0.0 0.00 0.00 0.00 60 1016.4
20260508222603 65 0 0.0 0.0 0.00 0.00 0.00 61 1016.6
20260508222503 64 0 0.0 0.0 0.00 0.00 0.00 61 1016.5
20260508222403 64 180 0.0 0.0 0.00 0.00 0.00 61 1016.6
20260508222306 64 0 0.0 0.0 0.00 0.00 0.00 62 1016.6
20260508222203 64 180 0.0 0.0 0.00 0.00 0.00 63 1016.5
20260508222103 64 180 0.0 0.0 0.00 0.00 0.00 63 1016.6
20260508222003 64 180 0.0 0.0 0.00 0.00 0.00 63 1016.5
20260508221903 64 180 0.0 0.0 0.00 0.00 0.00 63 1016.5
20260508221803 63 0 0.0 0.0 0.00 0.00 0.00 64 1016.4
20260508221703 63 180 0.0 0.0 0.00 0.00 0.00 64 1016.5
20260508221603 63 0 0.0 0.0 0.00 0.00 0.00 65 1016.5
20260508221503 63 180 0.0 0.0 0.00 0.00 0.00 66 1016.6
20260508221403 62 180 0.0 0.0 0.00 0.00 0.00 67 1016.4
20260508221303 62 180 0.0 0.0 0.00 0.00 0.00 67 1016.4
20260508221203 62 180 0.0 0.0 0.00 0.00 0.00 67 1016.4
20260508221103 61 180 0.0 0.0 0.00 0.00 0.00 68 1016.4
20260508221003 61 180 0.0 0.0 0.00 0.00 0.00 69 1016.4
20260508220903 61 180 0.0 0.0 0.00 0.00 0.00 70 1016.5
20260508220803 60 0 0.0 0.0 0.00 0.00 0.00 71 1016.4
20260508220703 60 180 0.0 0.0 0.00 0.00 0.00 72 1016.4
20260508220603 60 0 0.0 0.0 0.00 0.00 0.00 72 1016.4
20260508220503 59 0 0.0 0.0 0.00 0.00 0.00 73 1016.5
20260508220403 59 180 0.0 0.0 0.00 0.00 0.00 74 1016.2
20260508220303 58 180 0.0 0.0 0.00 0.00 0.00 74 1016.6
20260508220203 58 180 0.0 0.0 0.00 0.00 0.00 75 1016.8
20260508220003 57 180 0.0 0.0 0.00 0.00 0.00 75 1017.1
20260508215903 57 180 0.0 0.0 0.00 0.00 0.00 75 1016.9
20260508215803 57 180 0.0 0.0 0.00 0.00 0.00 74 1017.1
20260508215703 57 45 0.0 0.0 0.00 0.00 0.00 74 1016.8
20260508215603 57 0 0.0 0.0 0.00 0.00 0.00 74 1017.1
20260508215503 57 0 0.0 0.0 0.00 0.00 0.00 74 1017.0
20260508215403 57 0 0.0 0.0 0.00 0.00 0.00 74 1016.9
20260508215306 57 0 0.0 0.0 0.00 0.00 0.00 74 1017.0
20260508215203 57 0 0.0 0.0 0.00 0.00 0.00 74 1016.9
20260508215103 57 0 0.0 0.0 0.00 0.00 0.00 74 1017.0
20260508215003 57 0 0.0 0.0 0.00 0.00 0.00 74 1016.9
20260508214903 57 0 0.0 0.0 0.00 0.00 0.00 75 1017.1
20260508214803 56 0 0.0 0.0 0.00 0.00 0.00 75 1017.1
20260508214703 56 0 0.0 0.0 0.00 0.00 0.00 75 1016.9
20260508214603 56 45 0.0 0.0 0.00 0.00 0.00 75 1016.9
20260508214503 56 225 0.0 0.0 0.00 0.00 0.00 75 1016.8
20260508214403 56 0 0.0 0.0 0.00 0.00 0.00 75 1016.8
20260508214303 56 0 0.0 0.0 0.00 0.00 0.00 75 1016.8
20260508214203 56 0 0.0 0.0 0.00 0.00 0.00 75 1016.8
20260508214103 56 0 0.0 0.0 0.00 0.00 0.00 76 1017.0
20260508214003 56 0 0.0 0.0 0.00 0.00 0.00 76 1016.8
20260508213903 56 0 0.0 0.0 0.00 0.00 0.00 76 1016.8
20260508213803 56 0 0.0 0.0 0.00 0.00 0.00 76 1016.8
20260508213703 56 0 0.0 0.0 0.00 0.00 0.00 77 1016.9
20260508213603 56 0 0.0 0.0 0.00 0.00 0.00 77 1016.8
20260508213503 56 0 0.0 0.0 0.00 0.00 0.00 77 1016.8
20260508213403 55 0 0.0 0.0 0.00 0.00 0.00 77 1016.8
20260508213303 55 0 0.0 0.0 0.00 0.00 0.00 77 1016.7
20260508213203 55 0 0.0 0.0 0.00 0.00 0.00 77 1016.7
20260508213103 55 0 0.0 0.0 0.00 0.00 0.00 77 1016.9
20260508213003 55 0 0.0 0.0 0.00 0.00 0.00 76 1016.7
20260508212903 55 0 0.0 0.0 0.00 0.00 0.00 76 1016.6
20260508212803 55 0 0.0 0.0 0.00 0.00 0.00 76 1016.7
20260508212703 55 0 0.0 0.0 0.00 0.00 0.00 76 1016.8
20260508212603 55 0 0.0 0.0 0.00 0.00 0.00 76 1016.7
20260508212503 55 0 0.0 0.0 0.00 0.00 0.00 75 1016.7
20260508212403 55 0 0.0 0.0 0.00 0.00 0.00 75 1016.7
20260508212306 55 0 0.0 0.0 0.00 0.00 0.00 75 1016.8
20260508212203 55 0 0.0 0.0 0.00 0.00 0.00 75 1016.8
20260508212103 55 0 0.0 0.0 0.00 0.00 0.00 75 1016.7
20260508212003 55 0 0.0 0.0 0.00 0.00 0.00 75 1016.7
20260508211903 55 0 0.0 0.0 0.00 0.00 0.00 75 1016.8
20260508211802 55 0 0.0 0.0 0.00 0.00 0.00 75 1016.8
20260508211702 55 0 0.0 0.0 0.00 0.00 0.00 75 1016.8
20260508211603 55 0 0.0 0.0 0.00 0.00 0.00 75 1016.8
20260508211503 55 0 0.0 0.0 0.00 0.00 0.00 75 1016.8
20260508211403 55 0 0.0 0.0 0.00 0.00 0.00 75 1016.7
20260508211303 55 0 0.0 0.0 0.00 0.00 0.00 75 1016.7
20260508211203 55 0 0.0 0.0 0.00 0.00 0.00 74 1016.7
20260508211102 55 0 0.0 0.0 0.00 0.00 0.00 74 1016.7
20260508211003 55 0 0.0 0.0 0.00 0.00 0.00 74 1016.8
20260508210903 55 0 0.0 0.0 0.00 0.00 0.00 74 1016.7
20260508210803 56 0 0.0 0.0 0.00 0.00 0.00 74 1016.8
20260508210703 56 0 0.0 0.0 0.00 0.00 0.00 74 1016.9
20260508210603 56 0 0.0 0.0 0.00 0.00 0.00 74 1016.7
20260508210502 56 0 0.0 0.0 0.00 0.00 0.00 74 1016.6
20260508210402 56 0 0.0 0.0 0.00 0.00 0.00 74 1016.7
20260508210302 56 0 0.0 0.0 0.00 0.00 0.00 74 1016.7
20260508210202 56 0 0.0 0.0 0.00 0.00 0.00 75 1016.7
20260508210003 56 0 0.0 0.0 0.00 0.00 0.00 75 1016.8
20260508205903 56 0 0.0 0.0 0.00 0.00 0.00 75 1016.7
20260508205803 56 0 0.0 0.0 0.00 0.00 0.00 75 1016.7
20260508205703 55 0 0.0 0.0 0.00 0.00 0.00 75 1016.8
20260508205603 55 0 0.0 0.0 0.00 0.00 0.00 75 1016.7
20260508205503 55 0 0.0 0.0 0.00 0.00 0.00 75 1016.6
20260508205403 55 0 0.0 0.0 0.00 0.00 0.00 75 1016.6
20260508205306 55 0 0.0 0.0 0.00 0.00 0.00 74 1016.7
20260508205202 55 0 0.0 0.0 0.00 0.00 0.00 74 1016.7
20260508205102 56 0 0.0 0.0 0.00 0.00 0.00 74 1016.6
20260508205002 56 0 0.0 0.0 0.00 0.00 0.00 74 1016.7
20260508204902 56 0 0.0 0.0 0.00 0.00 0.00 74 1016.7
20260508204802 56 0 0.0 0.0 0.00 0.00 0.00 74 1016.8
20260508204703 56 0 0.0 0.0 0.00 0.00 0.00 74 1016.7
20260508204603 56 0 0.0 0.0 0.00 0.00 0.00 74 1016.8
20260508204503 56 0 0.0 0.0 0.00 0.00 0.00 74 1016.7
20260508204403 56 0 0.0 0.0 0.00 0.00 0.00 75 1016.7
20260508204303 56 0 0.0 0.0 0.00 0.00 0.00 75 1016.7
20260508204202 56 0 0.0 0.0 0.00 0.00 0.00 75 1016.8
20260508204102 56 0 0.0 0.0 0.00 0.00 0.00 75 1016.6
20260508204002 56 0 0.0 0.0 0.00 0.00 0.00 75 1016.7
20260508203902 56 0 0.0 0.0 0.00 0.00 0.00 74 1016.7
20260508203802 56 0 0.0 0.0 0.00 0.00 0.00 74 1016.6
20260508203703 56 0 0.0 0.0 0.00 0.00 0.00 74 1016.6
20260508203602 56 0 0.0 0.0 0.00 0.00 0.00 74 1016.6
20260508203502 56 0 0.0 0.0 0.00 0.00 0.00 74 1016.7
20260508203403 56 0 0.0 0.0 0.00 0.00 0.00 74 1016.8
20260508203303 56 0 0.0 0.0 0.00 0.00 0.00 74 1016.7
20260508203203 56 0 0.0 0.0 0.00 0.00 0.00 74 1016.6
20260508203103 56 0 0.0 0.0 0.00 0.00 0.00 74 1016.5
20260508203002 56 0 0.0 0.0 0.00 0.00 0.00 74 1016.7
20260508202902 56 0 0.0 0.0 0.00 0.00 0.00 74 1016.5
20260508202802 56 0 0.0 0.0 0.00 0.00 0.00 74 1016.7
20260508202702 56 0 0.0 0.0 0.00 0.00 0.00 73 1016.6
20260508202602 56 0 0.0 0.0 0.00 0.00 0.00 73 1016.5
20260508202502 56 0 0.0 0.0 0.00 0.00 0.00 73 1016.6
20260508202402 56 0 0.0 0.0 0.00 0.00 0.00 73 1016.7
20260508202306 56 0 0.0 0.0 0.00 0.00 0.00 73 1016.7
20260508202203 57 0 0.0 0.0 0.00 0.00 0.00 73 1016.7
20260508202103 57 0 0.0 0.0 0.00 0.00 0.00 73 1016.7
20260508202002 57 0 0.0 0.0 0.00 0.00 0.00 73 1016.8
20260508201902 57 0 0.0 0.0 0.00 0.00 0.00 73 1016.7
20260508201802 57 0 0.0 0.0 0.00 0.00 0.00 73 1016.7
20260508201702 57 0 0.0 0.0 0.00 0.00 0.00 73 1016.7
20260508201602 57 180 0.0 0.0 0.00 0.00 0.00 73 1016.8
20260508201502 57 180 0.0 0.0 0.00 0.00 0.00 73 1016.8
20260508201402 57 180 0.0 0.0 0.00 0.00 0.00 73 1016.7
20260508201302 57 180 0.0 0.0 0.00 0.00 0.00 73 1016.6
20260508201202 57 180 0.0 0.0 0.00 0.00 0.00 73 1016.8
20260508201102 57 180 0.0 0.0 0.00 0.00 0.00 73 1016.8
20260508201002 57 45 0.0 0.0 0.00 0.00 0.00 73 1016.8
20260508200903 57 225 0.0 0.0 0.00 0.00 0.00 73 1016.7
20260508200802 57 225 0.0 0.0 0.00 0.00 0.00 73 1016.7
20260508200702 57 225 0.0 0.0 0.00 0.00 0.00 73 1016.8
20260508200602 57 225 0.0 0.0 0.00 0.00 0.00 73 1016.7
20260508200502 57 225 0.0 0.0 0.00 0.00 0.00 73 1016.8
20260508200402 57 225 0.0 0.0 0.00 0.00 0.00 73 1016.8
20260508200302 57 0 0.0 0.0 0.00 0.00 0.00 73 1016.8
20260508200202 57 0 0.0 0.0 0.00 0.00 0.00 73 1016.7
20260508200002 57 0 0.0 0.0 0.00 0.00 0.00 73 1016.7
20260508195902 57 0 0.0 0.0 0.00 0.00 0.00 73 1016.8
20260508195803 57 0 0.0 0.0 0.00 0.00 0.00 72 1016.9
20260508195702 57 0 0.0 0.0 0.00 0.00 0.00 72 1016.8
20260508195602 57 0 0.0 0.0 0.00 0.00 0.00 72 1016.7
20260508195502 57 0 0.0 0.0 0.00 0.00 0.00 72 1017.0
20260508195402 57 0 0.0 0.0 0.00 0.00 0.00 72 1016.8
20260508195305 57 0 0.0 0.0 0.00 0.00 0.00 72 1016.9
20260508195202 57 0 0.0 0.0 0.00 0.00 0.00 72 1016.9
20260508195102 57 0 0.0 0.0 0.00 0.00 0.00 72 1016.9
20260508195002 57 0 0.0 0.0 0.00 0.00 0.00 72 1016.9
20260508194902 57 225 0.0 0.0 0.00 0.00 0.00 72 1016.8
20260508194802 57 225 0.0 0.0 0.00 0.00 0.00 72 1016.7
20260508194702 57 225 0.0 0.0 0.00 0.00 0.00 71 1016.9
20260508194602 57 225 0.0 0.0 0.00 0.00 0.00 71 1016.9
20260508194502 57 225 0.0 0.0 0.00 0.00 0.00 71 1016.8
20260508194402 57 225 0.0 0.0 0.00 0.00 0.00 71 1016.8
20260508194302 57 225 0.0 0.0 0.00 0.00 0.00 71 1016.8
20260508194202 57 225 0.0 0.0 0.00 0.00 0.00 71 1016.8
20260508194102 57 225 0.0 0.0 0.00 0.00 0.00 71 1016.9
20260508194002 57 225 0.0 0.0 0.00 0.00 0.00 71 1017.0
20260508193902 57 225 0.0 0.0 0.00 0.00 0.00 71 1016.8
20260508193802 57 225 0.0 0.0 0.00 0.00 0.00 71 1016.8
20260508193702 57 225 0.0 0.0 0.00 0.00 0.00 71 1016.9
20260508193602 57 225 0.0 0.0 0.00 0.00 0.00 71 1016.8
20260508193502 57 225 0.0 0.0 0.00 0.00 0.00 71 1016.9
20260508193402 58 225 0.0 0.0 0.00 0.00 0.00 71 1017.0
20260508193302 58 225 0.0 0.0 0.00 0.00 0.00 71 1017.0
20260508193202 58 225 0.0 0.0 0.00 0.00 0.00 71 1016.9
20260508193102 58 225 0.0 0.0 0.00 0.00 0.00 71 1017.0
20260508193002 58 225 0.0 0.0 0.00 0.00 0.00 71 1017.0
20260508192902 58 225 0.0 0.0 0.00 0.00 0.00 70 1016.9
20260508192802 58 225 0.0 0.0 0.00 0.00 0.00 70 1017.2
20260508192702 58 225 0.0 0.0 0.00 0.00 0.00 70 1016.9
20260508192502 58 225 0.0 0.0 0.00 0.00 0.00 70 1016.9
20260508192402 58 225 0.0 0.0 0.00 0.00 0.00 70 1016.9
20260508192305 58 225 0.0 0.0 0.00 0.00 0.00 70 1017.0
20260508192202 58 225 0.0 0.0 0.00 0.00 0.00 70 1017.0
20260508192102 58 225 0.0 0.0 0.00 0.00 0.00 70 1016.9
20260508192002 58 225 0.0 0.0 0.00 0.00 0.00 70 1017.0
20260508191902 58 225 0.0 0.0 0.00 0.00 0.00 70 1016.9
20260508191802 58 225 0.0 0.0 0.00 0.00 0.00 70 1016.9
20260508191702 58 225 0.0 0.0 0.00 0.00 0.00 70 1017.0
20260508191602 58 225 0.0 0.0 0.00 0.00 0.00 70 1017.0
20260508191502 58 225 0.0 0.0 0.00 0.00 0.00 70 1017.0
20260508191402 58 225 0.0 0.0 0.00 0.00 0.00 70 1017.0
20260508191302 58 225 0.0 0.0 0.00 0.00 0.00 70 1017.1
20260508191202 58 225 0.0 0.0 0.00 0.00 0.00 69 1017.0
20260508191102 58 225 0.0 0.0 0.00 0.00 0.00 69 1016.9
20260508191002 58 225 0.0 0.0 0.00 0.00 0.00 69 1017.1
20260508190902 58 0 0.0 0.0 0.00 0.00 0.00 69 1017.0
20260508190802 58 0 0.0 0.0 0.00 0.00 0.00 69 1016.9
20260508190702 58 0 0.0 0.0 0.00 0.00 0.00 69 1016.9
20260508190602 58 0 0.0 0.0 0.00 0.00 0.00 69 1017.0
20260508190502 58 0 0.0 0.0 0.00 0.00 0.00 69 1017.1
20260508190402 58 0 0.0 0.0 0.00 0.00 0.00 69 1017.0
20260508190302 58 0 0.0 0.0 0.00 0.00 0.00 69 1017.0
20260508190002 58 0 0.0 0.0 0.00 0.00 0.00 69 1017.0
20260508185902 58 0 0.0 0.0 0.00 0.00 0.00 69 1016.9
20260508185802 58 0 0.0 0.0 0.00 0.00 0.00 69 1017.1
20260508185702 58 0 0.0 0.0 0.00 0.00 0.00 69 1017.0
20260508185602 58 0 0.0 0.0 0.00 0.00 0.00 69 1016.9
20260508185502 58 225 0.0 0.0 0.00 0.00 0.00 69 1017.1
20260508185402 58 0 0.0 0.0 0.00 0.00 0.00 68 1017.1
20260508185305 58 0 0.0 0.0 0.00 0.00 0.00 68 1016.9
20260508185202 58 0 0.0 0.0 0.00 0.00 0.00 68 1017.1
20260508185102 58 0 0.0 0.0 0.00 0.00 0.00 68 1017.0
20260508185002 58 0 0.0 0.0 0.00 0.00 0.00 68 1017.1
20260508184902 58 0 0.0 0.0 0.00 0.00 0.00 68 1017.1
20260508184802 58 0 0.0 0.0 0.00 0.00 0.00 68 1017.1
20260508184702 58 0 0.0 0.0 0.00 0.00 0.00 67 1017.2
20260508184602 58 0 0.0 0.0 0.00 0.00 0.00 66 1017.0
20260508184502 58 0 0.0 0.0 0.00 0.00 0.00 66 1017.1
20260508184402 58 0 0.0 0.0 0.00 0.00 0.00 66 1017.2
20260508184302 58 0 0.0 0.0 0.00 0.00 0.00 66 1017.0
20260508184202 59 0 0.0 0.0 0.00 0.00 0.00 66 1017.1
20260508184102 59 0 0.0 0.0 0.00 0.00 0.00 66 1017.2
20260508184002 59 0 0.0 0.0 0.00 0.00 0.00 66 1017.3
20260508183902 59 0 0.0 0.0 0.00 0.00 0.00 66 1017.1
20260508183803 59 0 0.0 0.0 0.00 0.00 0.00 66 1017.0
20260508183702 59 0 0.0 0.0 0.00 0.00 0.00 66 1017.0
20260508183502 59 0 0.0 0.0 0.00 0.00 0.00 65 1017.1
20260508183402 59 0 0.0 0.0 0.00 0.00 0.00 65 1017.2
20260508183302 59 0 0.0 0.0 0.00 0.00 0.00 65 1017.1
20260508183202 59 0 0.0 0.0 0.00 0.00 0.00 65 1017.3
20260508183102 59 0 0.0 0.0 0.00 0.00 0.00 64 1017.1
20260508183002 59 0 0.0 0.0 0.00 0.00 0.00 64 1017.2
20260508182902 59 0 0.0 0.0 0.00 0.00 0.00 64 1017.3
20260508182802 60 0 0.0 0.0 0.00 0.00 0.00 64 1017.2
20260508182702 60 0 0.0 0.0 0.00 0.00 0.00 64 1017.2
20260508182602 60 0 0.0 0.0 0.00 0.00 0.00 64 1017.2
20260508182502 60 0 0.0 0.0 0.00 0.00 0.00 64 1017.3
20260508182402 60 180 0.0 0.0 0.00 0.00 0.00 65 1017.2
20260508182306 59 180 0.0 0.0 0.00 0.00 0.00 65 1017.2
20260508182202 59 0 0.0 0.0 0.00 0.00 0.00 65 1017.3
20260508182102 59 180 0.0 0.0 0.00 0.00 0.00 65 1017.1
20260508182002 59 180 0.0 0.0 0.00 0.00 0.00 65 1017.2
20260508181902 59 0 0.0 0.0 0.00 0.00 0.00 65 1017.3
20260508181802 59 0 0.0 0.0 0.00 0.00 0.00 65 1017.3
20260508181702 59 0 0.0 0.0 0.00 0.00 0.00 65 1017.3
20260508181602 59 180 0.0 0.0 0.00 0.00 0.00 66 1017.1
20260508181502 59 180 0.0 0.0 0.00 0.00 0.00 66 1017.1
20260508181402 59 45 0.0 0.0 0.00 0.00 0.00 66 1017.4
20260508181302 59 0 0.0 0.0 0.00 0.00 0.00 66 1017.4
20260508181202 59 45 0.0 0.0 0.00 0.00 0.00 67 1017.3
20260508181102 59 0 0.0 0.0 0.00 0.00 0.00 67 1017.4
20260508181002 59 0 0.0 0.0 0.00 0.00 0.00 67 1017.4
20260508180902 59 45 0.0 0.0 0.00 0.00 0.00 66 1017.3
20260508180802 59 45 0.0 0.0 0.00 0.00 0.00 66 1017.4
20260508180702 59 0 0.0 0.0 0.00 0.00 0.00 66 1017.3
20260508180602 59 0 0.0 0.0 0.00 0.00 0.00 66 1017.4
20260508180502 59 0 0.0 0.0 0.00 0.00 0.00 66 1017.4
20260508180402 59 0 0.0 0.0 0.00 0.00 0.00 66 1017.5
20260508180302 59 0 0.0 0.0 0.00 0.00 0.00 66 1017.4
20260508180202 59 0 0.0 0.0 0.00 0.00 0.00 65 1017.5
20260508180002 59 0 0.0 0.0 0.00 0.00 0.00 65 1017.4
20260508175902 59 0 0.0 0.0 0.00 0.00 0.00 65 1017.3
20260508175802 59 0 0.0 0.0 0.00 0.00 0.00 65 1017.4
20260508175702 59 0 0.0 0.0 0.00 0.00 0.00 64 1017.5
20260508175602 60 0 0.0 0.0 0.00 0.00 0.00 64 1017.4
20260508175502 60 0 0.0 0.0 0.00 0.00 0.00 64 1017.5
20260508175402 60 0 0.0 0.0 0.00 0.00 0.00 64 1017.5
20260508175305 60 0 0.0 0.0 0.00 0.00 0.00 64 1017.6
20260508175202 60 0 0.0 0.0 0.00 0.00 0.00 64 1017.3
20260508175102 60 0 0.0 0.0 0.00 0.00 0.00 64 1017.5
20260508175002 60 0 0.0 0.0 0.00 0.00 0.00 64 1017.6
20260508174902 60 0 0.0 0.0 0.00 0.00 0.00 63 1017.5
20260508174802 60 0 0.0 0.0 0.00 0.00 0.00 63 1017.5
20260508174702 60 0 0.0 0.0 0.00 0.00 0.00 63 1017.5
20260508174602 60 0 0.0 0.0 0.00 0.00 0.00 62 1017.5
20260508174502 60 0 0.0 0.0 0.00 0.00 0.00 62 1017.4
20260508174401 0 174 12.0 0.0 0.00 0.00 0.00
20260508174302 61 0 0.0 0.0 0.00 0.00 0.00 61 1017.5
20260508174202 61 0 0.0 0.0 0.00 0.00 0.00 61 1017.3
20260508174101 61 0 0.0 0.0 0.00 0.00 0.00 61 1017.4
20260508174002 61 0 0.0 0.0 0.00 0.00 0.00 61 1017.3
20260508173902 61 0 0.0 0.0 0.00 0.00 0.00 61 1017.3
20260508173802 61 0 0.0 0.0 0.00 0.00 0.00 60 1017.3
20260508173702 61 45 0.0 0.0 0.00 0.00 0.00 60 1017.3
20260508173602 61 45 0.0 0.0 0.00 0.00 0.00 60 1017.2
20260508173502 61 0 0.0 0.0 0.00 0.00 0.00 60 1017.4
20260508173402 61 45 0.0 0.0 0.00 0.00 0.00 60 1017.4
20260508173301 61 0 0.0 0.0 0.00 0.00 0.00 60 1017.2
20260508173201 61 45 0.0 0.0 0.00 0.00 0.00 60 1017.3
20260508173101 61 45 0.0 0.0 0.00 0.00 0.00 60 1017.3
20260508173001 61 45 0.0 0.0 0.00 0.00 0.00 60 1017.4
20260508172902 61 45 0.0 0.0 0.00 0.00 0.00 60 1017.4
20260508172802 61 0 0.0 0.0 0.00 0.00 0.00 60 1017.4
20260508172702 61 180 0.0 0.0 0.00 0.00 0.00 60 1017.4
20260508172602 61 0 0.0 0.0 0.00 0.00 0.00 60 1017.5
20260508172502 61 180 0.0 0.0 0.00 0.00 0.00 60 1017.4
20260508172402 61 0 0.0 0.0 0.00 0.00 0.00 60 1017.6
20260508172301 61 180 0.0 0.0 0.00 0.00 0.00 60 1017.4
20260508172201 61 180 0.0 0.0 0.00 0.00 0.00 60 1017.4
20260508172101 62 180 0.0 0.0 0.00 0.00 0.00 60 1017.3
20260508172001 62 0 0.0 0.0 0.00 0.00 0.00 60 1017.3
20260508171901 62 0 0.0 0.0 0.00 0.00 0.00 60 1017.4
20260508171802 62 180 0.0 0.0 0.00 0.00 0.00 60 1017.4
20260508171702 62 0 0.0 0.0 0.00 0.00 0.00 60 1017.4
20260508171602 62 180 0.0 0.0 0.00 0.00 0.00 60 1017.4
20260508171502 62 180 0.0 0.0 0.00 0.00 0.00 60 1017.4
20260508171402 62 180 0.0 0.0 0.00 0.00 0.00 60 1017.4
20260508171301 62 0 0.0 0.0 0.00 0.00 0.00 60 1017.4
20260508171201 62 180 0.0 0.0 0.00 0.00 0.00 60 1017.5
20260508171101 62 0 0.0 0.0 0.00 0.00 0.00 61 1017.5
20260508171001 62 0 0.0 0.0 0.00 0.00 0.00 61 1017.5
20260508170901 62 0 0.0 0.0 0.00 0.00 0.00 61 1017.3
20260508170801 62 0 0.0 0.0 0.00 0.00 0.00 61 1017.4
20260508170702 62 180 0.0 0.0 0.00 0.00 0.00 61 1017.4
20260508170602 62 0 0.0 0.0 0.00 0.00 0.00 61 1017.4
20260508170502 61 0 0.0 0.0 0.00 0.00 0.00 61 1017.4
20260508170401 61 0 0.0 0.0 0.00 0.00 0.00 61 1017.3
20260508170301 61 0 0.0 0.0 0.00 0.00 0.00 61 1017.3
20260508170201 61 0 0.0 0.0 0.00 0.00 0.00 61 1017.4
20260508170001 61 0 0.0 0.0 0.00 0.00 0.00 61 1017.4
20260508165901 61 0 0.0 0.0 0.00 0.00 0.00 61 1017.4
20260508165801 61 0 0.0 0.0 0.00 0.00 0.00 61 1017.4
20260508165701 61 0 0.0 0.0 0.00 0.00 0.00 61 1017.5
20260508165602 61 0 0.0 0.0 0.00 0.00 0.00 61 1017.4
20260508165502 62 0 0.0 0.0 0.00 0.00 0.00 61 1017.4
20260508165402 61 0 0.0 0.0 0.00 0.00 0.00 61 1017.3
20260508165302 61 0 0.0 0.0 0.00 0.00 0.00 62 1017.5
20260508165201 61 0 0.0 0.0 0.00 0.00 0.00 62 1017.4
20260508165101 61 0 0.0 0.0 0.00 0.00 0.00 62 1017.6
20260508165001 61 0 0.0 0.0 0.00 0.00 0.00 62 1017.4
20260508164901 61 180 0.0 0.0 0.00 0.00 0.00 62 1017.5
20260508164801 61 0 0.0 0.0 0.00 0.00 0.00 62 1017.4
20260508164702 61 0 0.0 0.0 0.00 0.00 0.00 63 1017.3
20260508164601 61 0 0.0 0.0 0.00 0.00 0.00 63 1017.4
20260508164501 61 0 0.0 0.0 0.00 0.00 0.00 63 1017.4
20260508164402 61 0 0.0 0.0 0.00 0.00 0.00 63 1017.4
20260508164302 61 0 0.0 0.0 0.00 0.00 0.00 63 1017.3
20260508164201 61 0 0.0 0.0 0.00 0.00 0.00 63 1017.5
20260508164101 61 0 0.0 0.0 0.00 0.00 0.00 63 1017.6
20260508164001 61 0 0.0 0.0 0.00 0.00 0.00 64 1017.4
20260508163901 61 0 0.0 0.0 0.00 0.00 0.00 64 1017.5
20260508163801 61 0 0.0 0.0 0.00 0.00 0.00 64 1017.4
20260508163701 61 0 0.0 0.0 0.00 0.00 0.00 64 1017.5
20260508163601 61 0 0.0 0.0 0.00 0.00 0.00 64 1017.6
20260508163501 61 0 0.0 0.0 0.00 0.00 0.00 64 1017.5
20260508163401 61 0 0.0 0.0 0.00 0.00 0.00 64 1017.5
20260508163301 61 0 0.0 0.0 0.00 0.00 0.00 63 1017.6
20260508163201 61 0 0.0 0.0 0.00 0.00 0.00 63 1017.5
20260508163101 61 0 0.0 0.0 0.00 0.00 0.00 63 1017.5
20260508163001 61 0 0.0 0.0 0.00 0.00 0.00 63 1017.6
20260508162901 61 0 0.0 0.0 0.00 0.00 0.00 64 1017.6
20260508162801 61 0 0.0 0.0 0.00 0.00 0.00 64 1017.6
20260508162701 0 175 12.0 0.0 0.00 0.00 0.00
20260508162601 61 0 0.0 0.0 0.00 0.00 0.00 64 1017.5
20260508162501 61 0 0.0 0.0 0.00 0.00 0.00 64 1017.7
20260508162401 61 0 0.0 0.0 0.00 0.00 0.00 63 1017.6
20260508162301 61 0 0.0 0.0 0.00 0.00 0.00 63 1017.6
20260508162201 61 0 0.0 0.0 0.00 0.00 0.00 63 1017.7
20260508162101 61 0 0.0 0.0 0.00 0.00 0.00 63 1017.7
20260508162001 61 0 0.0 0.0 0.00 0.00 0.00 63 1017.7
20260508161901 61 0 0.0 0.0 0.00 0.00 0.00 63 1017.6
20260508161801 61 0 0.0 0.0 0.00 0.00 0.00 63 1017.7
20260508161701 61 0 0.0 0.0 0.00 0.00 0.00 63 1017.7
20260508161601 61 0 0.0 0.0 0.00 0.00 0.00 63 1017.7
20260508161501 61 0 0.0 0.0 0.00 0.00 0.00 63 1017.5
20260508161401 61 0 0.0 0.0 0.00 0.00 0.00 63 1017.7
20260508161301 61 0 0.0 0.0 0.00 0.00 0.00 62 1017.8
20260508161201 61 0 0.0 0.0 0.00 0.00 0.00 62 1017.6
20260508161101 61 0 0.0 0.0 0.00 0.00 0.00 62 1017.8
20260508161001 61 0 0.0 0.0 0.00 0.00 0.00 62 1017.7
20260508160901 61 0 0.0 0.0 0.00 0.00 0.00 62 1017.7
20260508160801 61 0 0.0 0.0 0.00 0.00 0.00 62 1017.7
20260508160701 0 177 10.0 0.0 0.00 0.00 0.00
20260508160601 62 0 0.0 0.0 0.00 0.00 0.00 62 1017.7
20260508160501 62 0 0.0 0.0 0.00 0.00 0.00 62 1017.7
20260508160401 62 180 0.0 0.0 0.00 0.00 0.00 62 1017.6
20260508160301 62 180 0.0 0.0 0.00 0.00 0.00 62 1017.7
20260508160201 62 180 0.0 0.0 0.00 0.00 0.00 62 1017.7
20260508160101 62 180 0.0 0.0 0.00 0.00 0.00 62 1017.6
20260508160001 62 180 0.0 0.0 0.00 0.00 0.00 62 1017.7
20260508155901 62 180 0.0 0.0 0.00 0.00 0.00 62 1017.8
20260508155801 62 180 0.0 0.0 0.00 0.00 0.00 62 1017.6
20260508155701 62 0 0.0 0.0 0.00 0.00 0.00 62 1017.8
20260508155601 62 0 0.0 0.0 0.00 0.00 0.00 62 1017.6
20260508155501 62 0 0.0 0.0 0.00 0.00 0.00 62 1017.8
20260508155401 62 0 0.0 0.0 0.00 0.00 0.00 62 1017.7
20260508155301 62 0 0.0 0.0 0.00 0.00 0.00 61 1017.7
20260508155201 62 0 0.0 0.0 0.00 0.00 0.00 61 1017.7
20260508155101 62 180 0.0 0.0 0.00 0.00 0.00 61 1017.8
20260508155001 62 0 0.0 0.0 0.00 0.00 0.00 61 1017.8
20260508154901 62 180 0.0 0.0 0.00 0.00 0.00 61 1017.7
20260508154801 62 0 0.0 0.0 0.00 0.00 0.00 61 1017.7
20260508154601 62 0 0.0 0.0 0.00 0.00 0.00 60 1017.7
20260508154501 62 0 0.0 0.0 0.00 0.00 0.00 60 1017.7
20260508154401 62 0 0.0 0.0 0.00 0.00 0.00 60 1017.7
20260508154301 62 0 0.0 0.0 0.00 0.00 0.00 60 1017.7
20260508154201 62 0 0.0 0.0 0.00 0.00 0.00 60 1017.7
20260508154101 62 0 0.0 0.0 0.00 0.00 0.00 60 1017.7
20260508154001 62 180 0.0 0.0 0.00 0.00 0.00 60 1017.7
20260508153901 62 180 0.0 0.0 0.00 0.00 0.00 60 1017.6
20260508153801 62 0 0.0 0.0 0.00 0.00 0.00 60 1017.7
20260508153701 62 180 0.0 0.0 0.00 0.00 0.00 60 1017.7
20260508153501 62 180 0.0 0.0 0.00 0.00 0.00 59 1017.8
20260508153401 62 0 0.0 0.0 0.00 0.00 0.00 59 1017.6
20260508153301 62 180 0.0 0.0 0.00 0.00 0.00 59 1017.7
20260508153201 62 0 0.0 0.0 0.00 0.00 0.00 59 1017.7
20260508153101 62 180 0.0 0.0 0.00 0.00 0.00 59 1017.8
20260508153001 62 180 0.0 0.0 0.00 0.00 0.00 59 1017.7
20260508152901 63 180 0.0 0.0 0.00 0.00 0.00 59 1017.7
20260508152801 63 0 0.0 0.0 0.00 0.00 0.00 59 1017.7
20260508152701 63 0 0.0 0.0 0.00 0.00 0.00 59 1018.0
20260508152501 63 0 0.0 0.0 0.00 0.00 0.00 58 1017.7
20260508152401 63 180 0.0 0.0 0.00 0.00 0.00 58 1017.7
20260508152301 63 0 0.0 0.0 0.00 0.00 0.00 58 1017.9
20260508152201 63 180 0.0 0.0 0.00 0.00 0.00 58 1017.7
20260508152101 63 180 0.0 0.0 0.00 0.00 0.00 58 1017.7
20260508152001 63 180 0.0 0.0 0.00 0.00 0.00 58 1017.7
20260508151901 63 0 0.0 0.0 0.00 0.00 0.00 58 1017.8
20260508151801 63 180 0.0 0.0 0.00 0.00 0.00 58 1017.9
20260508151701 63 0 0.0 0.0 0.00 0.00 0.00 58 1017.7
20260508151601 63 0 0.0 0.0 0.00 0.00 0.00 58 1017.6
20260508151501 63 0 0.0 0.0 0.00 0.00 0.00 58 1017.7
20260508151401 63 180 0.0 0.0 0.00 0.00 0.00 58 1017.7
20260508151301 63 180 0.0 0.0 0.00 0.00 0.00 58 1017.6
20260508151201 63 180 0.0 0.0 0.00 0.00 0.00 58 1017.8
20260508151101 63 180 0.0 0.0 0.00 0.00 0.00 57 1017.6
20260508151001 63 0 0.0 0.0 0.00 0.00 0.00 57 1017.6
20260508150901 63 0 0.0 0.0 0.00 0.00 0.00 57 1017.7
20260508150801 63 180 0.0 0.0 0.00 0.00 0.00 57 1017.7
20260508150701 63 180 0.0 0.0 0.00 0.00 0.00 57 1017.6
20260508150601 63 180 0.0 0.0 0.00 0.00 0.00 57 1017.7
20260508150501 63 180 0.0 0.0 0.00 0.00 0.00 57 1017.7
20260508150401 63 180 0.0 0.0 0.00 0.00 0.00 57 1017.6
20260508150301 63 180 0.0 0.0 0.00 0.00 0.00 57 1017.8
20260508150201 63 0 0.0 0.0 0.00 0.00 0.00 57 1017.7
20260508150101 63 180 0.0 0.0 0.00 0.00 0.00 57 1017.7
20260508150001 64 180 0.0 0.0 0.00 0.00 0.00 57 1017.8
20260508145901 64 180 0.0 0.0 0.00 0.00 0.00 56 1017.7
20260508145801 64 180 0.0 0.0 0.00 0.00 0.00 56 1017.8
20260508145701 64 180 0.0 0.0 0.00 0.00 0.00 56 1017.8
20260508145601 64 180 0.0 1.0 0.00 0.00 0.00 56 1017.7
20260508145501 64 0 0.0 2.0 0.00 0.00 0.00 56 1017.7
20260508145401 64 180 0.0 2.0 0.00 0.00 0.00 56 1017.7
20260508145301 64 180 0.0 2.0 0.00 0.00 0.00 56 1017.8
20260508145201 64 180 0.0 2.0 0.00 0.00 0.00 56 1017.8
20260508145101 64 0 0.0 2.0 0.00 0.00 0.00 56 1017.7
20260508145000 0 178 9.0 0.0 0.00 0.00 0.00
20260508144901 64 180 0.0 2.0 0.00 0.00 0.00 56 1017.7
20260508144801 64 0 0.0 2.0 0.00 0.00 0.00 56 1017.8
20260508144701 64 180 0.0 2.0 0.00 0.00 0.00 56 1017.8
20260508144601 64 180 0.0 2.0 0.00 0.00 0.00 56 1017.8
20260508144501 64 180 0.0 2.0 0.00 0.00 0.00 56 1017.9
20260508144401 64 180 0.0 2.0 0.00 0.00 0.00 56 1017.8
20260508144301 64 180 0.0 1.0 0.00 0.00 0.00 56 1017.7
20260508144201 64 180 0.0 1.0 0.00 0.00 0.00 56 1017.7
20260508144101 64 180 0.0 1.0 0.00 0.00 0.00 56 1017.7
20260508144001 64 180 0.0 1.0 0.00 0.00 0.00 56 1017.8
20260508143901 64 180 0.0 1.0 0.00 0.00 0.00 56 1017.9
20260508143801 64 0 0.0 2.0 0.00 0.00 0.00 55 1017.8
20260508143701 64 180 0.0 2.0 0.00 0.00 0.00 55 1017.8
20260508143601 64 180 0.0 2.0 0.00 0.00 0.00 55 1017.9
20260508143501 64 180 0.0 2.0 0.00 0.00 0.00 55 1017.9
20260508143401 64 225 0.0 2.0 0.00 0.00 0.00 55 1018.0
20260508143301 64 0 0.0 2.0 0.00 0.00 0.00 55 1017.8
20260508143201 64 0 0.0 2.0 0.00 0.00 0.00 55 1017.9
20260508143101 64 180 0.0 2.0 0.00 0.00 0.00 55 1018.0
20260508143001 64 180 0.0 2.0 0.00 0.00 0.00 55 1017.8
20260508142901 64 0 0.0 2.0 0.00 0.00 0.00 55 1017.9
20260508142801 64 0 0.0 2.0 0.00 0.00 0.00 55 1018.0
20260508142701 65 0 0.0 2.0 0.00 0.00 0.00 55 1017.9
20260508142501 65 0 0.0 2.0 0.00 0.00 0.00 55 1018.0
20260508142401 65 180 0.0 2.0 0.00 0.00 0.00 55 1017.9
20260508142301 65 180 0.0 2.0 0.00 0.00 0.00 55 1017.8
20260508142201 65 180 0.0 1.0 0.00 0.00 0.00 54 1017.8
20260508142101 65 180 0.0 1.0 0.00 0.00 0.00 54 1017.9
20260508142001 65 0 0.0 1.0 0.00 0.00 0.00 54 1017.9
20260508141901 65 0 0.0 0.0 0.00 0.00 0.00 54 1018.0
20260508141801 65 0 0.0 0.0 0.00 0.00 0.00 54 1018.0
20260508141701 65 180 0.0 0.0 0.00 0.00 0.00 54 1018.0
20260508141601 65 0 0.0 0.0 0.00 0.00 0.00 54 1018.0
20260508141501 65 180 0.0 0.0 0.00 0.00 0.00 54 1018.1
20260508141401 65 0 0.0 0.0 0.00 0.00 0.00 54 1018.0
20260508141301 65 180 0.0 0.0 0.00 0.00 0.00 54 1018.0
20260508141201 65 0 0.0 0.0 0.00 0.00 0.00 54 1018.1
20260508141101 65 0 0.0 2.0 0.00 0.00 0.00 54 1017.9
20260508141001 65 180 0.0 2.0 0.00 0.00 0.00 54 1018.0
20260508140900 65 180 0.0 3.0 0.00 0.00 0.00 54 1017.8
20260508140800 65 180 0.0 3.0 0.00 0.00 0.00 54 1017.8
20260508140701 65 180 0.0 3.0 0.00 0.00 0.00 54 1017.9
20260508140601 65 0 0.0 3.0 0.00 0.00 0.00 54 1017.8
20260508140501 65 180 0.0 3.0 0.00 0.00 0.00 54 1017.9
20260508140401 65 0 0.0 3.0 0.00 0.00 0.00 54 1018.0
20260508140301 65 180 0.0 3.0 0.00 0.00 0.00 53 1017.9
20260508140200 65 0 0.0 3.0 0.00 0.00 0.00 53 1018.1
20260508140100 65 180 0.0 3.0 0.00 0.00 0.00 53 1018.1
20260508140000 65 0 0.0 3.0 0.00 0.00 0.00 53 1018.0
20260508135901 65 180 0.0 3.0 0.00 0.00 0.00 53 1018.0
20260508135801 65 0 0.0 3.0 0.00 0.00 0.00 53 1017.9
20260508135701 65 0 1.0 3.0 0.00 0.00 0.00 53 1018.0
20260508135601 65 0 1.0 3.0 0.00 0.00 0.00 54 1018.0
20260508135501 65 180 0.0 3.0 0.00 0.00 0.00 54 1017.9
20260508135400 65 180 0.0 3.0 0.00 0.00 0.00 53 1018.0
20260508135300 65 180 0.0 0.0 0.00 0.00 0.00 53 1017.9
20260508135200 65 180 0.0 0.0 0.00 0.00 0.00 53 1018.0
20260508135101 65 180 0.0 0.0 0.00 0.00 0.00 53 1018.1
20260508135001 65 180 0.0 0.0 0.00 0.00 0.00 53 1018.0
20260508134901 65 180 0.0 0.0 0.00 0.00 0.00 53 1018.2
20260508134801 65 0 0.0 3.0 0.00 0.00 0.00 53 1018.1
20260508134701 65 0 0.0 3.0 0.00 0.00 0.00 53 1018.1
20260508134600 65 0 0.0 3.0 0.00 0.00 0.00 53 1018.1
20260508134500 65 180 0.0 3.0 0.00 0.00 0.00 53 1018.0
20260508134400 66 180 0.0 3.0 0.00 0.00 0.00 53 1017.9
20260508134301 66 0 0.0 3.0 0.00 0.00 0.00 53 1018.0
20260508134201 66 0 0.0 3.0 0.00 0.00 0.00 53 1018.2
20260508134101 66 0 0.0 3.0 0.00 0.00 0.00 53 1018.0
20260508134000 66 180 0.0 3.0 0.00 0.00 0.00 53 1018.0
20260508133900 66 0 0.0 3.0 0.00 0.00 0.00 53 1018.1
20260508133800 66 180 0.0 3.0 0.00 0.00 0.00 53 1018.1
20260508133700 66 180 0.0 3.0 0.00 0.00 0.00 53 1018.1
20260508133601 66 180 0.0 3.0 0.00 0.00 0.00 53 1018.2
20260508133501 66 0 0.0 3.0 0.00 0.00 0.00 53 1018.2
20260508133401 66 0 1.0 3.0 0.00 0.00 0.00 53 1018.1
20260508133300 66 0 1.0 3.0 0.00 0.00 0.00 53 1018.0
20260508133200 66 180 1.0 3.0 0.00 0.00 0.00 53 1018.1
20260508133100 66 0 0.0 2.0 0.00 0.00 0.00 53 1017.9
20260508133000 66 180 0.0 2.0 0.00 0.00 0.00 53 1018.0
20260508132900 66 0 0.0 2.0 0.00 0.00 0.00 53 1018.0
20260508132801 66 0 0.0 3.0 0.00 0.00 0.00 53 1017.9
20260508132701 66 180 0.0 3.0 0.00 0.00 0.00 53 1017.9
20260508132600 66 0 0.0 3.0 0.00 0.00 0.00 53 1018.0
20260508132500 66 0 0.0 3.0 0.00 0.00 0.00 53 1018.1
20260508132400 66 0 0.0 3.0 0.00 0.00 0.00 53 1018.0
20260508132300 66 0 0.0 3.0 0.00 0.00 0.00 53 1018.0
20260508132200 66 180 0.0 3.0 0.00 0.00 0.00 53 1018.0
20260508132101 66 0 0.0 3.0 0.00 0.00 0.00 52 1018.1
20260508132001 66 0 0.0 3.0 0.00 0.00 0.00 52 1018.0
20260508131900 66 0 0.0 3.0 0.00 0.00 0.00 52 1018.1
20260508131800 66 180 0.0 3.0 0.00 0.00 0.00 52 1018.0
20260508131700 66 0 1.0 3.0 0.00 0.00 0.00 52 1018.1
20260508131600 66 180 1.0 3.0 0.00 0.00 0.00 52 1018.1
20260508131500 66 180 0.0 3.0 0.00 0.00 0.00 52 1018.2
20260508131400 66 0 0.0 3.0 0.00 0.00 0.00 52 1018.0
20260508131301 66 180 0.0 3.0 0.00 0.00 0.00 52 1018.1
20260508131200 66 0 0.0 3.0 0.00 0.00 0.00 52 1018.0
20260508131100 66 0 0.0 3.0 0.00 0.00 0.00 52 1018.0
20260508131000 66 180 0.0 3.0 0.00 0.00 0.00 52 1018.0
20260508130900 66 0 0.0 3.0 0.00 0.00 0.00 51 1017.9
20260508130800 66 180 1.0 3.0 0.00 0.00 0.00 51 1017.9
20260508130700 66 0 1.0 3.0 0.00 0.00 0.00 51 1017.9
20260508130600 66 0 1.0 3.0 0.00 0.00 0.00 51 1018.0
20260508130500 66 180 1.0 3.0 0.00 0.00 0.00 51 1018.0
20260508130400 66 180 0.0 3.0 0.00 0.00 0.00 51 1018.0
20260508130300 66 0 1.0 3.0 0.00 0.00 0.00 51 1017.9
20260508130200 66 1 3.0 0.0 0.00 0.00 0.00 51 1018.1
20260508130100 66 0 0.0 3.0 0.00 0.00 0.00 51 1018.1
20260508130000 66 0 0.0 3.0 0.00 0.00 0.00 50 1018.0
20260508125900 66 0 0.0 3.0 0.00 0.00 0.00 50 1017.9
20260508125800 66 0 0.0 3.0 0.00 0.00 0.00 50 1017.9
20260508125700 66 180 0.0 3.0 0.00 0.00 0.00 50 1018.0
20260508125600 66 180 0.0 3.0 0.00 0.00 0.00 50 1017.9
20260508125500 66 180 0.0 3.0 0.00 0.00 0.00 49 1017.8
20260508125400 67 0 0.0 3.0 0.00 0.00 0.00 49 1017.9
20260508125300 67 180 0.0 3.0 0.00 0.00 0.00 49 1017.8
20260508125200 67 180 0.0 3.0 0.00 0.00 0.00 49 1017.9
20260508125100 67 180 0.0 3.0 0.00 0.00 0.00 49 1017.9
20260508125000 67 180 1.0 3.0 0.00 0.00 0.00 49 1017.9
20260508124900 67 0 1.0 3.0 0.00 0.00 0.00 49 1017.8
20260508124800 67 0 1.0 3.0 0.00 0.00 0.00 48 1017.7
20260508124700 67 0 1.0 3.0 0.00 0.00 0.00 48 1017.8
20260508124600 67 0 0.0 3.0 0.00 0.00 0.00 48 1017.8
20260508124500 67 0 0.0 3.0 0.00 0.00 0.00 48 1017.9
20260508124400 67 0 0.0 3.0 0.00 0.00 0.00 48 1017.7
20260508124300 67 0 0.0 3.0 0.00 0.00 0.00 48 1017.7
20260508124200 67 225 0.0 3.0 0.00 0.00 0.00 48 1017.7
20260508124100 67 0 0.0 3.0 0.00 0.00 0.00 48 1017.7
20260508124000 67 0 1.0 3.0 0.00 0.00 0.00 48 1017.7
20260508123900 67 180 1.0 3.0 0.00 0.00 0.00 47 1017.5
20260508123800 67 0 2.0 3.0 0.00 0.00 0.00 47 1017.7
20260508123700 67 0 2.0 3.0 0.00 0.00 0.00 48 1017.7
20260508123600 67 0 1.0 3.0 0.00 0.00 0.00 48 1017.6
20260508123500 67 0 0.0 2.0 0.00 0.00 0.00 48 1017.6
20260508123400 67 0 0.0 2.0 0.00 0.00 0.00 47 1017.6
20260508123300 67 0 0.0 2.0 0.00 0.00 0.00 47 1017.6
20260508123200 67 0 0.0 2.0 0.00 0.00 0.00 47 1017.7
20260508123100 67 180 0.0 2.0 0.00 0.00 0.00 47 1017.5
20260508123000 67 0 0.0 2.0 0.00 0.00 0.00 47 1017.6
20260508122900 67 180 0.0 2.0 0.00 0.00 0.00 47 1017.6
20260508122800 67 180 0.0 2.0 0.00 0.00 0.00 48 1017.6
20260508122700 66 0 1.0 2.0 0.00 0.00 0.00 48 1017.6
20260508122600 66 0 0.0 2.0 0.00 0.00 0.00 48 1017.4
20260508122400 66 0 0.0 1.0 0.00 0.00 0.00 47 1017.6
20260508122300 66 0 0.0 0.0 0.00 0.00 0.00 47 1017.6
20260508122200 66 0 0.0 0.0 0.00 0.00 0.00 47 1017.6
20260508122100 66 0 0.0 0.0 0.00 0.00 0.00 47 1017.5
20260508122000 67 0 0.0 0.0 0.00 0.00 0.00 46 1017.5
20260508121900 67 0 0.0 1.0 0.00 0.00 0.00 46 1017.4
20260508121800 67 0 0.0 1.0 0.00 0.00 0.00 46 1017.5
20260508121700 67 0 0.0 1.0 0.00 0.00 0.00 46 1017.5
20260508121600 67 0 0.0 1.0 0.00 0.00 0.00 46 1017.3
20260508121500 67 0 0.0 1.0 0.00 0.00 0.00 46 1017.4
20260508121400 67 0 0.0 1.0 0.00 0.00 0.00 46 1017.2
20260508121300 67 0 0.0 1.0 0.00 0.00 0.00 46 1017.4
20260508121200 67 0 0.0 1.0 0.00 0.00 0.00 46 1017.4
20260508121100 67 0 0.0 1.0 0.00 0.00 0.00 46 1017.3
20260508121000 67 0 0.0 1.0 0.00 0.00 0.00 46 1017.2
20260508120900 67 180 0.0 1.0 0.00 0.00 0.00 46 1017.3
20260508120800 67 0 0.0 1.0 0.00 0.00 0.00 46 1017.3
20260508120700 67 0 0.0 1.0 0.00 0.00 0.00 46 1017.3
20260508120600 67 0 0.0 1.0 0.00 0.00 0.00 46 1017.5
20260508120500 67 0 0.0 1.0 0.00 0.00 0.00 46 1017.3
20260508120400 67 0 0.0 1.0 0.00 0.00 0.00 45 1017.3
20260508120300 67 180 0.0 1.0 0.00 0.00 0.00 45 1017.5
20260508120200 67 180 0.0 2.0 0.00 0.00 0.00 45 1017.4
20260508120100 67 180 0.0 2.0 0.00 0.00 0.00 45 1017.3
20260508120000 67 0 0.0 2.0 0.00 0.00 0.00 45 1017.3
20260508115900 67 0 0.0 2.0 0.00 0.00 0.00 45 1017.5
20260508115800 67 0 0.0 2.0 0.00 0.00 0.00 45 1017.4
20260508115700 67 0 0.0 2.0 0.00 0.00 0.00 45 1017.4
20260508115600 67 0 0.0 2.0 0.00 0.00 0.00 45 1017.3
20260508115500 67 180 0.0 2.0 0.00 0.00 0.00 45 1017.3
20260508115400 67 180 0.0 2.0 0.00 0.00 0.00 45 1017.3
20260508115300 67 180 0.0 2.0 0.00 0.00 0.00 45 1017.3
20260508115200 67 0 0.0 1.0 0.00 0.00 0.00 45 1017.3
20260508115100 67 0 0.0 0.0 0.00 0.00 0.00 45 1017.1
20260508115000 67 0 0.0 0.0 0.00 0.00 0.00 45 1017.3
20260508114900 67 180 0.0 0.0 0.00 0.00 0.00 45 1017.1
20260508114800 68 0 0.0 0.0 0.00 0.00 0.00 44 1017.1
20260508114700 68 0 0.0 0.0 0.00 0.00 0.00 44 1017.3
20260508114600 68 0 0.0 0.0 0.00 0.00 0.00 44 1017.2
20260508114500 68 0 0.0 0.0 0.00 0.00 0.00 44 1017.3
20260508114400 68 0 0.0 0.0 0.00 0.00 0.00 44 1017.3
20260508114300 68 0 0.0 0.0 0.00 0.00 0.00 44 1017.2
20260508114200 68 0 0.0 0.0 0.00 0.00 0.00 44 1017.1
20260508114100 68 0 0.0 0.0 0.00 0.00 0.00 44 1017.1
20260508114000 68 0 0.0 0.0 0.00 0.00 0.00 44 1017.2
20260508113900 68 0 0.0 1.0 0.00 0.00 0.00 43 1017.3
20260508113800 68 0 0.0 1.0 0.00 0.00 0.00 43 1017.3
20260508113700 68 0 0.0 1.0 0.00 0.00 0.00 43 1017.1
20260508113600 68 180 0.0 1.0 0.00 0.00 0.00 43 1017.3
20260508113500 68 180 0.0 1.0 0.00 0.00 0.00 43 1017.2
20260508113400 68 180 0.0 1.0 0.00 0.00 0.00 43 1017.2
20260508113300 69 180 0.0 1.0 0.00 0.00 0.00 42 1017.3
20260508113200 69 0 0.0 1.0 0.00 0.00 0.00 42 1017.3
20260508113100 69 180 0.0 1.0 0.00 0.00 0.00 42 1017.2
20260508113000 69 180 0.0 1.0 0.00 0.00 0.00 42 1017.3
20260508112900 69 180 0.0 2.0 0.00 0.00 0.00 42 1017.1
20260508112800 69 180 0.0 2.0 0.00 0.00 0.00 42 1017.1
20260508112700 69 90 0.0 2.0 0.00 0.00 0.00 42 1017.2
20260508112600 69 180 0.0 2.0 0.00 0.00 0.00 42 1017.1
20260508112501 69 180 0.0 2.0 0.00 0.00 0.00 42 1017.1
20260508112400 69 180 0.0 2.0 0.00 0.00 0.00 42 1017.0
20260508112300 69 90 0.0 2.0 0.00 0.00 0.00 42 1017.1
20260508112200 69 180 0.0 2.0 0.00 0.00 0.00 42 1017.2
20260508112100 69 180 0.0 2.0 0.00 0.00 0.00 42 1017.1
20260508112000 69 180 0.0 2.0 0.00 0.00 0.00 42 1017.0
20260508111900 69 90 0.0 2.0 0.00 0.00 0.00 42 1017.2
20260508111800 69 180 0.0 2.0 0.00 0.00 0.00 42 1017.1
20260508111700 69 90 0.0 2.0 0.00 0.00 0.00 42 1017.1
20260508111600 69 180 0.0 2.0 0.00 0.00 0.00 41 1017.3
20260508111500 69 180 0.0 2.0 0.00 0.00 0.00 41 1017.1
20260508111400 69 0 0.0 2.0 0.00 0.00 0.00 41 1017.1
20260508111300 69 180 0.0 3.0 0.00 0.00 0.00 41 1017.1
20260508111200 69 180 1.0 3.0 0.00 0.00 0.00 41 1017.1
20260508111100 69 90 0.0 3.0 0.00 0.00 0.00 41 1017.0
20260508111000 69 180 0.0 3.0 0.00 0.00 0.00 41 1017.1
20260508110900 69 180 0.0 3.0 0.00 0.00 0.00 41 1017.0
20260508110800 69 180 0.0 3.0 0.00 0.00 0.00 41 1017.0
20260508110700 69 180 0.0 3.0 0.00 0.00 0.00 41 1017.0
20260508110600 69 180 0.0 3.0 0.00 0.00 0.00 41 1017.0
20260508110500 69 180 0.0 3.0 0.00 0.00 0.00 41 1017.0
20260508110400 69 180 0.0 3.0 0.00 0.00 0.00 41 1016.9
20260508110300 69 0 0.0 2.0 0.00 0.00 0.00 41 1016.9
20260508110200 70 180 0.0 3.0 0.00 0.00 0.00 41 1017.2
20260508110100 70 180 0.0 3.0 0.00 0.00 0.00 41 1016.9
20260508110000 70 0 0.0 3.0 0.00 0.00 0.00 41 1017.0
20260508105900 70 0 0.0 3.0 0.00 0.00 0.00 41 1016.9
20260508105800 70 90 0.0 3.0 0.00 0.00 0.00 41 1017.0
20260508105700 70 180 0.0 3.0 0.00 0.00 0.00 41 1017.0
20260508105600 70 180 0.0 3.0 0.00 0.00 0.00 40 1016.9
20260508105500 70 180 0.0 3.0 0.00 0.00 0.00 40 1016.9
20260508105400 70 90 0.0 3.0 0.00 0.00 0.00 40 1017.0
20260508105300 70 0 0.0 3.0 0.00 0.00 0.00 40 1017.0
20260508105200 70 0 0.0 3.0 0.00 0.00 0.00 40 1016.8
20260508105100 70 180 1.0 3.0 0.00 0.00 0.00 40 1017.0
20260508105000 70 180 1.0 3.0 0.00 0.00 0.00 40 1017.0
20260508104900 70 180 1.0 3.0 0.00 0.00 0.00 40 1016.9
20260508104800 70 180 1.0 3.0 0.00 0.00 0.00 40 1017.0
20260508104700 70 90 1.0 3.0 0.00 0.00 0.00 40 1016.8
20260508104600 70 90 1.0 3.0 0.00 0.00 0.00 40 1017.0
20260508104500 70 180 0.0 3.0 0.00 0.00 0.00 39 1017.0
20260508104400 70 180 0.0 3.0 0.00 0.00 0.00 39 1016.8
20260508104300 70 0 1.0 3.0 0.00 0.00 0.00 39 1016.9
20260508104200 70 225 1.0 3.0 0.00 0.00 0.00 39 1016.8
20260508104100 70 180 0.0 3.0 0.00 0.00 0.00 39 1017.0
20260508104000 70 0 0.0 3.0 0.00 0.00 0.00 39 1016.8
20260508103900 70 180 1.0 3.0 0.00 0.00 0.00 39 1016.8
20260508103800 70 180 1.0 3.0 0.00 0.00 0.00 39 1016.8
20260508103700 70 180 1.0 3.0 0.00 0.00 0.00 39 1016.8
20260508103600 70 180 1.0 3.0 0.00 0.00 0.00 39 1016.8
20260508103500 71 180 1.0 3.0 0.00 0.00 0.00 39 1016.9
20260508103400 71 0 0.0 3.0 0.00 0.00 0.00 39 1016.7
20260508103300 71 0 0.0 3.0 0.00 0.00 0.00 39 1016.7
20260508103200 71 180 1.0 3.0 0.00 0.00 0.00 39 1016.9
20260508103100 71 180 1.0 3.0 0.00 0.00 0.00 39 1016.7
20260508103000 71 180 0.0 3.0 0.00 0.00 0.00 39 1016.7
20260508102900 71 180 0.0 2.0 0.00 0.00 0.00 39 1016.6
20260508102800 71 180 0.0 3.0 0.00 0.00 0.00 39 1016.8
20260508102700 71 180 0.0 3.0 0.00 0.00 0.00 39 1016.6
20260508102600 71 180 0.0 3.0 0.00 0.00 0.00 39 1016.9
20260508102500 71 180 0.0 3.0 0.00 0.00 0.00 38 1016.8
20260508102400 71 0 0.0 3.0 0.00 0.00 0.00 38 1016.6
20260508102300 71 90 0.0 3.0 0.00 0.00 0.00 38 1016.6
20260508102200 71 180 0.0 3.0 0.00 0.00 0.00 38 1016.7
20260508102100 71 0 0.0 3.0 0.00 0.00 0.00 38 1016.7
20260508102000 71 180 0.0 3.0 0.00 0.00 0.00 38 1016.7
20260508101900 71 180 1.0 3.0 0.00 0.00 0.00 38 1016.6
20260508101759 71 180 1.0 3.0 0.00 0.00 0.00 38 1016.7
20260508101700 71 180 1.0 3.0 0.00 0.00 0.00 38 1016.6
20260508101600 71 225 0.0 3.0 0.00 0.00 0.00 38 1016.5
20260508101500 71 180 0.0 3.0 0.00 0.00 0.00 38 1016.5
20260508101400 71 90 1.0 3.0 0.00 0.00 0.00 38 1016.4
20260508101259 71 180 1.0 3.0 0.00 0.00 0.00 38 1016.5
20260508101159 72 90 1.0 3.0 0.00 0.00 0.00 38 1016.5
20260508101100 72 180 1.0 3.0 0.00 0.00 0.00 38 1016.4
20260508101000 72 180 0.0 3.0 0.00 0.00 0.00 38 1016.4
20260508100900 72 180 0.0 3.0 0.00 0.00 0.00 38 1016.4
20260508100800 72 90 0.0 3.0 0.00 0.00 0.00 38 1016.5
20260508100700 72 180 0.0 4.0 0.00 0.00 0.00 38 1016.6
20260508100559 72 90 0.0 4.0 0.00 0.00 0.00 38 1016.4
20260508100459 72 180 1.0 4.0 0.00 0.00 0.00 38 1016.5
20260508100400 72 180 1.0 4.0 0.00 0.00 0.00 38 1016.5
20260508100300 72 180 1.0 4.0 0.00 0.00 0.00 37 1016.6
20260508100200 72 180 2.0 4.0 0.00 0.00 0.00 37 1016.5
20260508100059 72 180 1.0 4.0 0.00 0.00 0.00 38 1016.5
20260508095959 72 180 1.0 4.0 0.00 0.00 0.00 38 1016.6
20260508095859 72 180 1.0 4.0 0.00 0.00 0.00 38 1016.8
20260508095759 72 180 0.0 4.0 0.00 0.00 0.00 38 1016.6
20260508095700 72 0 0.0 3.0 0.00 0.00 0.00 38 1016.5
20260508095559 72 180 0.0 3.0 0.00 0.00 0.00 38 1016.6
20260508095459 72 90 0.0 3.0 0.00 0.00 0.00 38 1016.9
20260508095359 72 90 1.0 4.0 0.00 0.00 0.00 38 1016.5
20260508095259 72 90 0.0 4.0 0.00 0.00 0.00 38 1016.5
20260508095159 72 90 0.0 4.0 0.00 0.00 0.00 39 1016.5
20260508095059 72 90 0.0 4.0 0.00 0.00 0.00 39 1016.5
20260508094959 72 180 0.0 4.0 0.00 0.00 0.00 39 1016.7
20260508094859 72 90 1.0 4.0 0.00 0.00 0.00 38 1016.6
20260508094759 72 90 1.0 4.0 0.00 0.00 0.00 38 1016.6
20260508094659 72 90 1.0 4.0 0.00 0.00 0.00 38 1016.6
20260508094600 72 90 2.0 4.0 0.00 0.00 0.00 39 1016.5
20260508094459 72 90 2.0 4.0 0.00 0.00 0.00 38 1016.4
20260508094359 72 180 2.0 3.0 0.00 0.00 0.00 39 1016.4
20260508094259 72 180 1.0 3.0 0.00 0.00 0.00 38 1016.5
20260508094159 72 90 1.0 3.0 0.00 0.00 0.00 38 1016.4
20260508094059 72 90 2.0 3.0 0.00 0.00 0.00 38 1016.5
20260508093959 72 180 1.0 3.0 0.00 0.00 0.00 38 1016.5
20260508093859 72 180 1.0 3.0 0.00 0.00 0.00 38 1016.6
20260508093759 72 180 1.0 3.0 0.00 0.00 0.00 38 1016.8
20260508093659 72 180 1.0 3.0 0.00 0.00 0.00 38 1016.8
20260508093559 72 180 1.0 3.0 0.00 0.00 0.00 38 1016.6
20260508093459 72 180 1.0 3.0 0.00 0.00 0.00 38 1016.8
20260508093359 72 180 1.0 3.0 0.00 0.00 0.00 38 1016.7
20260508093259 72 90 1.0 3.0 0.00 0.00 0.00 38 1016.6
20260508093159 72 90 1.0 3.0 0.00 0.00 0.00 38 1016.7
20260508093059 72 90 1.0 3.0 0.00 0.00 0.00 38 1016.7
20260508092959 72 90 1.0 4.0 0.00 0.00 0.00 38 1016.7
20260508092859 72 90 1.0 4.0 0.00 0.00 0.00 38 1016.8
20260508092759 73 90 2.0 4.0 0.00 0.00 0.00 38 1016.8
20260508092659 73 90 1.0 4.0 0.00 0.00 0.00 38 1016.9
20260508092559 73 180 1.0 4.0 0.00 0.00 0.00 38 1016.8
20260508092459 73 180 1.0 4.0 0.00 0.00 0.00 38 1016.9
20260508092359 73 180 1.0 4.0 0.00 0.00 0.00 38 1017.0
20260508092259 73 90 1.0 4.0 0.00 0.00 0.00 37 1016.8
20260508092159 73 45 2.0 4.0 0.00 0.00 0.00 37 1016.9
20260508092059 73 180 2.0 4.0 0.00 0.00 0.00 37 1016.9
20260508091959 73 90 2.0 4.0 0.00 0.00 0.00 37 1016.8
20260508091859 73 90 1.0 3.0 0.00 0.00 0.00 38 1016.9
20260508091759 74 180 1.0 3.0 0.00 0.00 0.00 38 1017.0
20260508091659 73 180 1.0 3.0 0.00 0.00 0.00 38 1017.1
20260508091559 73 45 1.0 4.0 0.00 0.00 0.00 37 1017.0
20260508091459 73 180 1.0 4.0 0.00 0.00 0.00 37 1017.1
20260508091359 73 180 1.0 4.0 0.00 0.00 0.00 37 1017.1
20260508091259 73 90 1.0 4.0 0.00 0.00 0.00 37 1017.0
20260508091159 73 180 1.0 4.0 0.00 0.00 0.00 37 1017.0
20260508091059 73 90 0.0 4.0 0.00 0.00 0.00 38 1016.9
20260508090959 73 180 0.0 4.0 0.00 0.00 0.00 37 1017.0
20260508090859 73 180 1.0 4.0 0.00 0.00 0.00 37 1017.0
20260508090759 73 90 2.0 4.0 0.00 0.00 0.00 37 1017.0
20260508090659 73 90 2.0 4.0 0.00 0.00 0.00 37 1017.0
20260508090559 73 90 2.0 4.0 0.00 0.00 0.00 37 1017.0
20260508090459 73 180 1.0 4.0 0.00 0.00 0.00 36 1017.0
20260508090359 73 180 2.0 4.0 0.00 0.00 0.00 36 1017.0
20260508090259 73 2 4.0 0.0 0.00 0.00 0.00 37 1017.0
20260508090159 73 180 2.0 4.0 0.00 0.00 0.00 36 1017.1
20260508090059 73 180 2.0 4.0 0.00 0.00 0.00 37 1017.0
20260508085959 73 180 2.0 4.0 0.00 0.00 0.00 37 1017.1
20260508085859 73 180 2.0 4.0 0.00 0.00 0.00 36 1017.1
20260508085759 73 180 1.0 4.0 0.00 0.00 0.00 36 1017.0
20260508085659 74 90 1.0 4.0 0.00 0.00 0.00 36 1017.1
20260508085559 74 90 1.0 4.0 0.00 0.00 0.00 36 1017.1
20260508085459 74 90 2.0 4.0 0.00 0.00 0.00 35 1017.0
20260508085359 74 180 2.0 4.0 0.00 0.00 0.00 35 1017.1
20260508085259 74 180 2.0 4.0 0.00 0.00 0.00 35 1017.0
20260508085159 74 90 2.0 3.0 0.00 0.00 0.00 35 1016.9
20260508085059 74 180 2.0 3.0 0.00 0.00 0.00 35 1017.0
20260508084959 74 90 1.0 3.0 0.00 0.00 0.00 35 1016.9
20260508084859 74 90 1.0 3.0 0.00 0.00 0.00 35 1016.9
20260508084759 74 180 1.0 3.0 0.00 0.00 0.00 35 1016.9
20260508084659 74 180 1.0 3.0 0.00 0.00 0.00 35 1016.9
20260508084559 74 180 2.0 3.0 0.00 0.00 0.00 35 1016.9
20260508084459 74 180 2.0 3.0 0.00 0.00 0.00 35 1016.8
20260508084359 74 180 1.0 3.0 0.00 0.00 0.00 35 1016.9
20260508084259 74 180 1.0 4.0 0.00 0.00 0.00 35 1016.8
20260508084159 74 180 2.0 4.0 0.00 0.00 0.00 35 1016.7
20260508084059 74 180 1.0 4.0 0.00 0.00 0.00 35 1016.9
20260508083959 74 180 0.0 4.0 0.00 0.00 0.00 35 1016.8
20260508083759 75 90 0.0 4.0 0.00 0.00 0.00 35 1016.7
20260508083659 75 90 0.0 4.0 0.00 0.00 0.00 35 1016.8
20260508083559 75 180 2.0 4.0 0.00 0.00 0.00 35 1016.7
20260508083459 75 90 2.0 4.0 0.00 0.00 0.00 35 1016.7
20260508083359 75 90 2.0 4.0 0.00 0.00 0.00 35 1016.6
20260508083259 75 90 2.0 4.0 0.00 0.00 0.00 35 1016.7
20260508083159 75 90 2.0 4.0 0.00 0.00 0.00 35 1016.5
20260508083059 75 90 2.0 4.0 0.00 0.00 0.00 35 1016.6
20260508082959 75 90 2.0 4.0 0.00 0.00 0.00 34 1016.4
20260508082859 75 90 2.0 4.0 0.00 0.00 0.00 34 1016.4
20260508082759 74 90 2.0 4.0 0.00 0.00 0.00 34 1016.4
20260508082659 74 180 2.0 4.0 0.00 0.00 0.00 34 1016.4
20260508082559 74 180 1.0 4.0 0.00 0.00 0.00 34 1016.5
20260508082459 74 180 2.0 4.0 0.00 0.00 0.00 34 1016.6
20260508082359 75 90 2.0 4.0 0.00 0.00 0.00 33 1016.6
20260508082259 75 180 2.0 4.0 0.00 0.00 0.00 33 1016.6
20260508082159 75 180 2.0 4.0 0.00 0.00 0.00 33 1016.7
20260508082059 75 180 2.0 4.0 0.00 0.00 0.00 33 1016.6
20260508081959 76 90 2.0 4.0 0.00 0.00 0.00 33 1016.6
20260508081859 76 90 2.0 4.0 0.00 0.00 0.00 33 1016.7
20260508081759 76 180 2.0 4.0 0.00 0.00 0.00 32 1016.6
20260508081659 76 45 2.0 4.0 0.00 0.00 0.00 32 1016.5
20260508081559 76 90 2.0 4.0 0.00 0.00 0.00 32 1016.7
20260508081459 76 90 2.0 4.0 0.00 0.00 0.00 33 1016.4
20260508081359 76 180 1.0 4.0 0.00 0.00 0.00 33 1016.5
20260508081259 76 180 1.0 4.0 0.00 0.00 0.00 33 1016.4
20260508081159 76 45 1.0 4.0 0.00 0.00 0.00 33 1016.5
20260508081059 76 45 0.0 4.0 0.00 0.00 0.00 33 1016.6
20260508080959 76 0 4.0 0.0 0.00 0.00 0.00 33 1016.6
20260508080858 0 166 5.0 0.0 0.00 0.00 0.00
20260508080759 77 180 1.0 4.0 0.00 0.00 0.00 33 1016.6
20260508080659 77 90 1.0 4.0 0.00 0.00 0.00 33 1016.7
20260508080559 77 45 2.0 4.0 0.00 0.00 0.00 32 1016.7
20260508080459 77 90 2.0 4.0 0.00 0.00 0.00 32 1016.6
20260508080359 77 180 1.0 4.0 0.00 0.00 0.00 32 1016.5
20260508080259 77 180 1.0 6.0 0.00 0.00 0.00 32 1016.7
20260508080159 77 180 1.0 6.0 0.00 0.00 0.00 32 1016.4
20260508080059 77 180 1.0 6.0 0.00 0.00 0.00 32 1016.4
20260508075959 77 45 0.0 6.0 0.00 0.00 0.00 32 1016.5
20260508075859 77 180 0.0 6.0 0.00 0.00 0.00 32 1016.5
20260508075759 77 180 1.0 6.0 0.00 0.00 0.00 32 1016.6
20260508075659 77 180 1.0 6.0 0.00 0.00 0.00 31 1016.6
20260508075559 78 90 1.0 6.0 0.00 0.00 0.00 31 1016.7
20260508075459 78 90 3.0 6.0 0.00 0.00 0.00 31 1016.6
20260508075359 78 180 2.0 6.0 0.00 0.00 0.00 31 1016.7
20260508075259 78 180 1.0 6.0 0.00 0.00 0.00 31 1016.8
20260508075159 78 180 3.0 6.0 0.00 0.00 0.00 31 1016.7
20260508075059 79 90 2.0 6.0 0.00 0.00 0.00 31 1016.7
20260508074959 79 180 1.0 5.0 0.00 0.00 0.00 31 1016.6
20260508074859 78 180 0.0 5.0 0.00 0.00 0.00 31 1016.7
20260508074759 78 180 0.0 5.0 0.00 0.00 0.00 32 1016.6
20260508074659 78 180 0.0 5.0 0.00 0.00 0.00 32 1016.6
20260508074559 78 180 0.0 5.0 0.00 0.00 0.00 33 1016.8
20260508074459 78 180 0.0 5.0 0.00 0.00 0.00 33 1016.6
20260508074359 78 90 0.0 5.0 0.00 0.00 0.00 33 1016.5
20260508074259 77 90 1.0 6.0 0.00 0.00 0.00 33 1016.6
20260508074159 78 90 2.0 6.0 0.00 0.00 0.00 32 1016.7
20260508074059 78 90 2.0 6.0 0.00 0.00 0.00 32 1016.7
20260508073959 78 90 1.0 6.0 0.00 0.00 0.00 33 1016.6
20260508073859 78 45 1.0 6.0 0.00 0.00 0.00 33 1016.6
20260508073759 78 180 1.0 6.0 0.00 0.00 0.00 32 1016.6
20260508073659 78 180 1.0 6.0 0.00 0.00 0.00 32 1016.6
20260508073558 78 90 1.0 6.0 0.00 0.00 0.00 32 1016.8
20260508073459 78 90 3.0 6.0 0.00 0.00 0.00 32 1016.7
20260508073359 78 180 3.0 6.0 0.00 0.00 0.00 32 1016.6
20260508073259 78 180 1.0 6.0 0.00 0.00 0.00 32 1016.5
20260508073159 78 90 0.0 6.0 0.00 0.00 0.00 32 1016.5
20260508073059 78 0 0.0 6.0 0.00 0.00 0.00 33 1016.4
20260508072959 78 90 1.0 6.0 0.00 0.00 0.00 32 1016.5
20260508072859 78 180 1.0 6.0 0.00 0.00 0.00 32 1016.6
20260508072759 78 225 1.0 6.0 0.00 0.00 0.00 32 1016.6
20260508072659 78 180 2.0 6.0 0.00 0.00 0.00 32 1016.6
20260508072559 78 180 2.0 6.0 0.00 0.00 0.00 32 1016.6
20260508072458 78 180 3.0 6.0 0.00 0.00 0.00 32 1016.7
20260508072359 78 45 3.0 6.0 0.00 0.00 0.00 32 1016.6
20260508072259 78 180 3.0 6.0 0.00 0.00 0.00 32 1016.6
20260508072159 79 180 3.0 6.0 0.00 0.00 0.00 32 1016.7
20260508072059 79 180 2.0 6.0 0.00 0.00 0.00 32 1016.6
20260508071959 79 90 1.0 3.0 0.00 0.00 0.00 32 1016.6
20260508071859 79 90 1.0 3.0 0.00 0.00 0.00 32 1016.5
20260508071759 79 90 2.0 4.0 0.00 0.00 0.00 32 1016.7
20260508071659 78 45 1.0 4.0 0.00 0.00 0.00 32 1016.5
20260508071559 78 90 1.0 4.0 0.00 0.00 0.00 33 1016.7
20260508071459 78 45 0.0 5.0 0.00 0.00 0.00 32 1016.7
20260508071359 77 45 0.0 6.0 0.00 0.00 0.00 32 1016.7
20260508071259 77 90 0.0 6.0 0.00 0.00 0.00 32 1016.7
20260508071159 77 180 2.0 6.0 0.00 0.00 0.00 32 1016.7
20260508071059 77 180 2.0 6.0 0.00 0.00 0.00 32 1016.8
20260508070959 77 90 2.0 6.0 0.00 0.00 0.00 32 1016.8
20260508070859 77 90 2.0 6.0 0.00 0.00 0.00 32 1017.0
20260508070759 77 90 2.0 6.0 0.00 0.00 0.00 32 1016.8
20260508070659 78 90 2.0 6.0 0.00 0.00 0.00 31 1016.9
20260508070559 78 90 3.0 6.0 0.00 0.00 0.00 31 1016.7
20260508070459 78 90 3.0 6.0 0.00 0.00 0.00 31 1016.9
20260508070359 78 45 2.0 4.0 0.00 0.00 0.00 31 1016.7
20260508070259 78 90 1.0 4.0 0.00 0.00 0.00 31 1016.8
20260508070159 78 180 1.0 4.0 0.00 0.00 0.00 30 1016.8
20260508065958 78 180 1.0 5.0 0.00 0.00 0.00 30 1016.9
20260508065859 79 180 1.0 5.0 0.00 0.00 0.00 30 1017.0
20260508065759 79 90 1.0 5.0 0.00 0.00 0.00 30 1016.9
20260508065658 0 169 4.0 0.0 0.00 0.00 0.00
20260508065558 78 180 0.0 6.0 0.00 0.00 0.00 30 1017.1
20260508065459 78 90 1.0 6.0 0.00 0.00 0.00 30 1017.0
20260508065359 78 90 1.0 6.0 0.00 0.00 0.00 30 1017.0
20260508065158 78 90 3.0 6.0 0.00 0.00 0.00 30 1016.9
20260508065059 78 90 3.0 6.0 0.00 0.00 0.00 31 1017.0
20260508064959 78 180 3.0 6.0 0.00 0.00 0.00 31 1017.0
20260508064858 78 180 3.0 6.0 0.00 0.00 0.00 30 1017.0
20260508064758 79 90 4.0 6.0 0.00 0.00 0.00 30 1016.9
20260508064659 79 180 3.0 6.0 0.00 0.00 0.00 30 1017.1